KJ6MC Weather Reports


Display with metric or nautical units.
time (UTC)temp
F
wind
direction
speed
MPH
gust
MPH
rain 1hr
in
rain 24hr
in
rain mn
in
humidity
%
barometer
mb
20260510164021 64 228 4.0 9.0 0.00 0.00 0.00 76 1013.8
20260510163912 64 305 4.0 9.0 0.00 0.00 0.00 76 1013.8
20260510163813 64 229 4.0 9.0 0.00 0.00 0.00 76 1013.8
20260510163712 64 235 5.0 9.0 0.00 0.00 0.00 75 1013.8
20260510163612 64 241 5.0 9.0 0.00 0.00 0.00 75 1013.9
20260510163514 64 205 5.0 9.0 0.00 0.00 0.00 75 1013.9
20260510163407 64 248 5.0 9.0 0.00 0.00 0.00 75 1013.8
20260510163306 64 186 5.0 9.0 0.00 0.00 0.00 76 1013.8
20260510163107 63 245 5.0 9.0 0.00 0.00 0.00 76 1013.8
20260510163007 63 209 5.0 9.0 0.00 0.00 0.00 76 1013.9
20260510162901 63 193 5.0 9.0 0.00 0.00 0.00 76 1013.8
20260510162800 63 184 5.0 9.0 0.00 0.00 0.00 75 1013.8
20260510162700 63 225 5.0 9.0 0.00 0.00 0.00 76 1013.8
20260510162600 63 245 5.0 9.0 0.00 0.00 0.00 76 1013.8
20260510162502 63 240 5.0 9.0 0.00 0.00 0.00 75 1013.8
20260510162356 63 226 5.0 8.0 0.00 0.00 0.00 76 1013.8
20260510162256 63 197 4.0 8.0 0.00 0.00 0.00 76 1013.8
20260510162156 63 226 4.0 8.0 0.00 0.00 0.00 76 1013.8
20260510162056 63 203 4.0 8.0 0.00 0.00 0.00 76 1013.8
20260510161956 63 221 4.0 8.0 0.00 0.00 0.00 76 1013.9
20260510161850 63 224 4.0 8.0 0.00 0.00 0.00 76 1013.8
20260510161748 63 235 3.0 8.0 0.00 0.00 0.00 77 1013.9
20260510161649 63 214 3.0 10.0 0.00 0.00 0.00 76 1013.9
20260510161548 63 231 4.0 10.0 0.00 0.00 0.00 75 1013.9
20260510161450 63 211 3.0 10.0 0.00 0.00 0.00 76 1013.8
20260510161342 63 243 4.0 10.0 0.00 0.00 0.00 76 1013.8
20260510161242 63 212 4.0 10.0 0.00 0.00 0.00 77 1013.8
20260510161142 63 219 4.0 10.0 0.00 0.00 0.00 77 1013.8
20260510161043 63 161 4.0 10.0 0.00 0.00 0.00 76 1013.9
20260510160949 63 148 4.0 10.0 0.00 0.00 0.00 77 1013.8
20260510160838 63 280 4.0 10.0 0.00 0.00 0.00 77 1013.8
20260510160738 62 194 4.0 10.0 0.00 0.00 0.00 77 1013.9
20260510160636 62 146 4.0 9.0 0.00 0.00 0.00 77 1013.7
20260510160536 62 235 4.0 8.0 0.00 0.00 0.00 78 1013.8
20260510160330 62 174 4.0 8.0 0.00 0.00 0.00 78 1013.7
20260510160231 62 241 4.0 8.0 0.00 0.00 0.00 78 1013.7
20260510160130 62 211 4.0 8.0 0.00 0.00 0.00 78 1013.8
20260510160029 62 136 3.0 8.0 0.00 0.00 0.00 78 1013.7
20260510155932 62 201 4.0 8.0 0.00 0.00 0.00 78 1013.7
20260510155827 62 136 4.0 9.0 0.00 0.00 0.00 78 1013.7
20260510155727 62 248 4.0 9.0 0.00 0.00 0.00 78 1013.7
20260510155646 61 224 4.0 9.0 0.00 0.00 0.00 79 1013.7
20260510155626 62 236 4.0 9.0 0.00 0.00 0.00 79 1013.7
20260510155541 61 221 4.0 9.0 0.00 0.00 0.00 79 1013.7
20260510155531 61 224 4.0 9.0 0.00 0.00 0.00 79 1013.7
20260510155318 61 232 4.0 9.0 0.00 0.00 0.00 80 1013.7
20260510155219 61 229 4.0 9.0 0.00 0.00 0.00 80 1013.7
20260510155118 61 224 4.0 9.0 0.00 0.00 0.00 80 1013.7
20260510155018 61 238 4.0 9.0 0.00 0.00 0.00 80 1013.7
20260510154920 61 204 4.0 9.0 0.00 0.00 0.00 79 1013.8
20260510154812 61 221 4.0 8.0 0.00 0.00 0.00 79 1013.7
20260510154712 61 190 3.0 8.0 0.00 0.00 0.00 79 1013.8
20260510154612 61 239 3.0 8.0 0.00 0.00 0.00 80 1013.7
20260510154512 61 242 3.0 8.0 0.00 0.00 0.00 80 1013.7
20260510154413 61 234 2.0 8.0 0.00 0.00 0.00 79 1013.7
20260510154310 61 233 2.0 7.0 0.00 0.00 0.00 79 1013.7
20260510154210 61 224 2.0 7.0 0.00 0.00 0.00 79 1013.7
20260510154110 61 245 2.0 6.0 0.00 0.00 0.00 79 1013.7
20260510154008 61 236 2.0 6.0 0.00 0.00 0.00 80 1013.7
20260510153921 61 232 2.0 6.0 0.00 0.00 0.00 81 1013.7
20260510153801 61 255 2.0 6.0 0.00 0.00 0.00 81 1013.7
20260510153700 60 120 3.0 8.0 0.00 0.00 0.00 81 1013.7
20260510153623 60 214 3.0 8.0 0.00 0.00 0.00 81 1013.7
20260510153600 60 120 3.0 8.0 0.00 0.00 0.00 81 1013.8
20260510153517 60 245 3.0 8.0 0.00 0.00 0.00 81 1013.7
20260510153507 60 214 3.0 8.0 0.00 0.00 0.00 81 1013.7
20260510153254 60 236 3.0 8.0 0.00 0.00 0.00 81 1013.7
20260510153155 60 236 3.0 8.0 0.00 0.00 0.00 81 1013.7
20260510153054 60 235 3.0 8.0 0.00 0.00 0.00 81 1013.7
20260510152954 60 236 3.0 8.0 0.00 0.00 0.00 81 1013.8
20260510152856 60 236 2.0 8.0 0.00 0.00 0.00 81 1013.7
20260510152750 60 245 2.0 8.0 0.00 0.00 0.00 81 1013.8
20260510152650 60 248 2.0 8.0 0.00 0.00 0.00 81 1013.7
20260510152551 60 235 2.0 7.0 0.00 0.00 0.00 82 1013.8
20260510152451 60 217 2.0 7.0 0.00 0.00 0.00 82 1013.7
20260510152353 60 200 2.0 8.0 0.00 0.00 0.00 82 1013.7
20260510152248 60 221 2.0 8.0 0.00 0.00 0.00 83 1013.7
20260510152146 59 221 3.0 9.0 0.00 0.00 0.00 83 1013.7
20260510152044 59 233 3.0 9.0 0.00 0.00 0.00 83 1013.7
20260510151944 59 257 4.0 9.0 0.00 0.00 0.00 84 1013.7
20260510151847 59 257 4.0 9.0 0.00 0.00 0.00 83 1013.7
20260510151738 59 218 4.0 9.0 0.00 0.00 0.00 83 1013.7
20260510151637 59 238 4.0 9.0 0.00 0.00 0.00 83 1013.6
20260510151620 59 241 3.0 9.0 0.00 0.00 0.00 82 1013.6
20260510151537 59 232 3.0 9.0 0.00 0.00 0.00 83 1013.6
20260510151510 59 224 4.0 9.0 0.00 0.00 0.00 83 1013.6
20260510151459 59 241 3.0 9.0 0.00 0.00 0.00 82 1013.6
20260510151230 59 256 3.0 9.0 0.00 0.00 0.00 83 1013.6
20260510151131 59 228 3.0 8.0 0.00 0.00 0.00 83 1013.6
20260510151030 59 237 3.0 8.0 0.00 0.00 0.00 83 1013.6
20260510150930 59 221 3.0 8.0 0.00 0.00 0.00 83 1013.6
20260510150833 59 245 3.0 8.0 0.00 0.00 0.00 83 1013.6
20260510150725 59 212 2.0 8.0 0.00 0.00 0.00 83 1013.6
20260510150624 59 248 3.0 8.0 0.00 0.00 0.00 83 1013.6
20260510150553 59 295 3.0 8.0 0.00 0.00 0.00 84 1013.6
20260510150525 59 210 2.0 8.0 0.00 0.00 0.00 82 1013.6
20260510150440 59 233 2.0 8.0 0.00 0.00 0.00 83 1013.6
20260510150430 59 295 3.0 8.0 0.00 0.00 0.00 84 1013.6
20260510150218 59 139 3.0 8.0 0.00 0.00 0.00 84 1013.6
20260510150118 58 233 3.0 8.0 0.00 0.00 0.00 84 1013.5
20260510150051 58 224 3.0 8.0 0.00 0.00 0.00 84 1013.5
20260510150018 58 248 3.0 8.0 0.00 0.00 0.00 84 1013.5
20260510145936 58 233 3.0 8.0 0.00 0.00 0.00 84 1013.5
20260510145925 58 224 3.0 8.0 0.00 0.00 0.00 84 1013.5
20260510145803 58 250 4.0 9.0 0.00 0.00 0.00 85 1013.5
20260510145712 58 221 3.0 9.0 0.00 0.00 0.00 85 1013.5
20260510145646 58 225 3.0 9.0 0.00 0.00 0.00 85 1013.5
20260510145512 58 219 4.0 9.0 0.00 0.00 0.00 84 1013.5
20260510145428 58 232 4.0 9.0 0.00 0.00 0.00 84 1013.5
20260510145418 58 250 4.0 9.0 0.00 0.00 0.00 85 1013.5
20260510145206 58 231 3.0 9.0 0.00 0.00 0.00 85 1013.5
20260510145106 58 124 4.0 9.0 0.00 0.00 0.00 85 1013.5
20260510145007 58 231 4.0 9.0 0.00 0.00 0.00 85 1013.5
20260510144906 57 174 4.0 9.0 0.00 0.00 0.00 85 1013.5
20260510144808 57 223 4.0 9.0 0.00 0.00 0.00 85 1013.5
20260510144701 57 223 3.0 9.0 0.00 0.00 0.00 85 1013.5
20260510144600 57 248 3.0 9.0 0.00 0.00 0.00 85 1013.5
20260510144500 57 240 3.0 9.0 0.00 0.00 0.00 85 1013.5
20260510144400 57 216 3.0 9.0 0.00 0.00 0.00 85 1013.5
20260510144302 57 204 3.0 8.0 0.00 0.00 0.00 86 1013.5
20260510144154 57 231 3.0 8.0 0.00 0.00 0.00 86 1013.4
20260510144054 57 225 3.0 8.0 0.00 0.00 0.00 86 1013.4
20260510143955 57 194 3.0 8.0 0.00 0.00 0.00 86 1013.4
20260510143855 57 233 3.0 8.0 0.00 0.00 0.00 86 1013.4
20260510143757 57 256 3.0 8.0 0.00 0.00 0.00 86 1013.4
20260510143649 57 200 3.0 9.0 0.00 0.00 0.00 86 1013.5
20260510143548 57 232 3.0 9.0 0.00 0.00 0.00 86 1013.4
20260510143448 57 233 3.0 9.0 0.00 0.00 0.00 86 1013.4
20260510143348 57 236 3.0 9.0 0.00 0.00 0.00 86 1013.4
20260510143249 57 226 3.0 9.0 0.00 0.00 0.00 86 1013.4
20260510143143 57 250 3.0 9.0 0.00 0.00 0.00 86 1013.3
20260510143042 57 218 3.0 9.0 0.00 0.00 0.00 86 1013.4
20260510142942 57 288 3.0 9.0 0.00 0.00 0.00 86 1013.4
20260510142842 57 267 3.0 9.0 0.00 0.00 0.00 86 1013.3
20260510142744 57 215 3.0 9.0 0.00 0.00 0.00 86 1013.4
20260510142636 57 233 3.0 8.0 0.00 0.00 0.00 86 1013.4
20260510142536 57 298 3.0 8.0 0.00 0.00 0.00 86 1013.3
20260510142436 57 230 3.0 8.0 0.00 0.00 0.00 86 1013.3
20260510142336 57 231 3.0 9.0 0.00 0.00 0.00 86 1013.4
20260510142240 57 249 2.0 9.0 0.00 0.00 0.00 86 1013.3
20260510142132 57 243 2.0 9.0 0.00 0.00 0.00 87 1013.3
20260510142033 57 224 3.0 9.0 0.00 0.00 0.00 87 1013.3
20260510141933 56 218 3.0 9.0 0.00 0.00 0.00 87 1013.3
20260510141832 56 198 3.0 9.0 0.00 0.00 0.00 87 1013.3
20260510141731 56 239 2.0 9.0 0.00 0.00 0.00 87 1013.3
20260510141626 56 198 2.0 9.0 0.00 0.00 0.00 86 1013.2
20260510141524 56 243 3.0 9.0 0.00 0.00 0.00 86 1013.2
20260510141459 56 239 2.0 6.0 0.00 0.00 0.00 87 1013.2
20260510141424 56 239 2.0 9.0 0.00 0.00 0.00 87 1013.2
20260510141354 56 207 2.0 9.0 0.00 0.00 0.00 87 1013.2
20260510141344 56 239 2.0 6.0 0.00 0.00 0.00 87 1013.2
20260510141122 56 224 2.0 6.0 0.00 0.00 0.00 87 1013.2
20260510141022 56 232 2.0 6.0 0.00 0.00 0.00 87 1013.2
20260510140923 56 215 2.0 6.0 0.00 0.00 0.00 87 1013.2
20260510140821 56 233 2.0 6.0 0.00 0.00 0.00 87 1013.2
20260510140719 56 232 2.0 6.0 0.00 0.00 0.00 87 1013.2
20260510140616 56 164 2.0 5.0 0.00 0.00 0.00 87 1013.2
20260510140516 56 218 2.0 5.0 0.00 0.00 0.00 87 1013.1
20260510140416 56 146 2.0 8.0 0.00 0.00 0.00 87 1013.1
20260510140315 56 212 2.0 8.0 0.00 0.00 0.00 88 1013.1
20260510140216 56 211 2.0 8.0 0.00 0.00 0.00 88 1013.1
20260510140106 56 217 3.0 8.0 0.00 0.00 0.00 88 1013.1
20260510140006 56 230 3.0 8.0 0.00 0.00 0.00 88 1013.1
20260510135906 56 215 3.0 8.0 0.00 0.00 0.00 88 1013.1
20260510135806 56 226 3.0 8.0 0.00 0.00 0.00 88 1013.1
20260510135708 56 203 3.0 8.0 0.00 0.00 0.00 88 1013.0
20260510135604 56 197 3.0 8.0 0.00 0.00 0.00 88 1013.0
20260510135504 56 203 4.0 8.0 0.00 0.00 0.00 88 1013.1
20260510135422 55 193 3.0 9.0 0.00 0.00 0.00 89 1013.0
20260510135405 56 214 4.0 9.0 0.00 0.00 0.00 88 1013.0
20260510135317 56 155 3.0 9.0 0.00 0.00 0.00 88 1013.0
20260510135307 55 193 3.0 9.0 0.00 0.00 0.00 89 1013.0
20260510135056 55 139 3.0 9.0 0.00 0.00 0.00 89 1013.0
20260510134954 55 214 3.0 9.0 0.00 0.00 0.00 89 1013.0
20260510134913 55 207 3.0 9.0 0.00 0.00 0.00 89 1012.9
20260510134854 55 207 3.0 9.0 0.00 0.00 0.00 89 1012.9
20260510134810 55 198 3.0 9.0 0.00 0.00 0.00 89 1012.9
20260510134800 55 207 3.0 9.0 0.00 0.00 0.00 89 1012.9
20260510134549 55 198 3.0 9.0 0.00 0.00 0.00 89 1012.8
20260510134449 55 217 3.0 9.0 0.00 0.00 0.00 89 1012.9
20260510134411 55 239 3.0 9.0 0.00 0.00 0.00 89 1012.9
20260510134349 55 193 3.0 9.0 0.00 0.00 0.00 89 1012.9
20260510134305 55 205 3.0 9.0 0.00 0.00 0.00 89 1012.8
20260510134255 55 239 3.0 9.0 0.00 0.00 0.00 89 1012.9
20260510134045 55 208 3.0 9.0 0.00 0.00 0.00 89 1012.8
20260510133944 55 146 3.0 8.0 0.00 0.00 0.00 89 1012.8
20260510133844 55 192 3.0 8.0 0.00 0.00 0.00 89 1012.8
20260510133745 55 225 3.0 8.0 0.00 0.00 0.00 89 1012.9
20260510133644 55 215 3.0 8.0 0.00 0.00 0.00 90 1012.8
20260510133536 55 183 3.0 8.0 0.00 0.00 0.00 90 1012.8
20260510133436 55 195 3.0 8.0 0.00 0.00 0.00 90 1012.8
20260510133336 55 169 3.0 7.0 0.00 0.00 0.00 90 1012.7
20260510133238 55 197 3.0 7.0 0.00 0.00 0.00 90 1012.7
20260510133138 55 233 3.0 6.0 0.00 0.00 0.00 90 1012.7
20260510133030 55 243 2.0 6.0 0.00 0.00 0.00 90 1012.7
20260510132930 55 245 2.0 6.0 0.00 0.00 0.00 90 1012.7
20260510132830 55 246 2.0 5.0 0.00 0.00 0.00 90 1012.7
20260510132730 55 204 2.0 5.0 0.00 0.00 0.00 90 1012.7
20260510132632 55 223 2.0 5.0 0.00 0.00 0.00 90 1012.7
20260510132524 55 228 2.0 5.0 0.00 0.00 0.00 90 1012.6
20260510132347 55 221 2.0 5.0 0.00 0.00 0.00 90 1012.6
20260510132247 55 160 2.0 5.0 0.00 0.00 0.00 90 1012.6
20260510132234 55 221 2.0 5.0 0.00 0.00 0.00 90 1012.6
20260510132035 55 200 2.0 5.0 0.00 0.00 0.00 90 1012.6
20260510131918 55 214 2.0 5.0 0.00 0.00 0.00 90 1012.6
20260510131818 55 225 2.0 5.0 0.00 0.00 0.00 90 1012.6
20260510131718 55 219 2.0 6.0 0.00 0.00 0.00 89 1012.6
20260510131637 55 211 2.0 6.0 0.00 0.00 0.00 89 1012.5
20260510131618 55 231 2.0 6.0 0.00 0.00 0.00 89 1012.5
20260510131512 55 239 2.0 6.0 0.00 0.00 0.00 89 1012.5
20260510131412 55 239 2.0 6.0 0.00 0.00 0.00 89 1012.5
20260510131312 55 219 2.0 6.0 0.00 0.00 0.00 89 1012.5
20260510131212 55 233 2.0 6.0 0.00 0.00 0.00 89 1012.5
20260510131122 55 127 2.0 6.0 0.00 0.00 0.00 89 1012.5
20260510131112 55 141 2.0 8.0 0.00 0.00 0.00 89 1012.5
20260510131008 55 229 2.0 8.0 0.00 0.00 0.00 89 1012.5
20260510130907 55 212 2.0 8.0 0.00 0.00 0.00 89 1012.5
20260510130840 55 176 2.0 8.0 0.00 0.00 0.00 89 1012.4
20260510130806 55 207 2.0 8.0 0.00 0.00 0.00 89 1012.5
20260510130734 55 214 2.0 8.0 0.00 0.00 0.00 89 1012.5
20260510130607 55 176 2.0 8.0 0.00 0.00 0.00 89 1012.4
20260510130507 55 243 2.0 8.0 0.00 0.00 0.00 89 1012.4
20260510130405 55 207 3.0 8.0 0.00 0.00 0.00 89 1012.5
20260510130303 55 212 3.0 8.0 0.00 0.00 0.00 89 1012.4
20260510130203 55 233 3.0 8.0 0.00 0.00 0.00 89 1012.4
20260510130120 55 221 3.0 8.0 0.00 0.00 0.00 89 1012.5
20260510130100 55 233 3.0 7.0 0.00 0.00 0.00 89 1012.5
20260510125956 55 132 3.0 7.0 0.00 0.00 0.00 89 1012.4
20260510125854 55 217 3.0 7.0 0.00 0.00 0.00 89 1012.4
20260510125754 55 222 3.0 7.0 0.00 0.00 0.00 89 1012.4
20260510125654 55 224 3.0 7.0 0.00 0.00 0.00 89 1012.5
20260510125620 55 232 3.0 7.0 0.00 0.00 0.00 89 1012.5
20260510125554 55 225 3.0 7.0 0.00 0.00 0.00 89 1012.5
20260510125450 55 225 3.0 7.0 0.00 0.00 0.00 89 1012.5
20260510125350 55 250 3.0 7.0 0.00 0.00 0.00 89 1012.5
20260510125340 55 241 3.0 7.0 0.00 0.00 0.00 89 1012.5
20260510125250 55 162 3.0 7.0 0.00 0.00 0.00 89 1012.5
20260510125231 55 230 3.0 7.0 0.00 0.00 0.00 89 1012.5
20260510125048 55 143 3.0 7.0 0.00 0.00 0.00 89 1012.5
20260510124942 55 233 2.0 7.0 0.00 0.00 0.00 89 1012.5
20260510124842 55 219 2.0 5.0 0.00 0.00 0.00 89 1012.5
20260510124742 55 215 2.0 5.0 0.00 0.00 0.00 89 1012.5
20260510124642 55 146 3.0 6.0 0.00 0.00 0.00 89 1012.5
20260510124620 55 243 3.0 6.0 0.00 0.00 0.00 89 1012.5
20260510124542 55 165 3.0 6.0 0.00 0.00 0.00 89 1012.5
20260510124336 55 242 3.0 6.0 0.00 0.00 0.00 89 1012.4
20260510124136 55 218 2.0 7.0 0.00 0.00 0.00 89 1012.4
20260510124120 55 158 2.0 7.0 0.00 0.00 0.00 89 1012.4
20260510124036 55 211 2.0 7.0 0.00 0.00 0.00 89 1012.4
20260510123935 55 245 3.0 7.0 0.00 0.00 0.00 89 1012.4
20260510123834 55 186 2.0 7.0 0.00 0.00 0.00 89 1012.4
20260510123734 55 238 2.0 7.0 0.00 0.00 0.00 89 1012.4
20260510123632 55 201 2.0 7.0 0.00 0.00 0.00 89 1012.4
20260510123621 55 149 2.0 7.0 0.00 0.00 0.00 89 1012.4
20260510123530 55 238 2.0 7.0 0.00 0.00 0.00 89 1012.4
20260510123426 55 225 2.0 7.0 0.00 0.00 0.00 89 1012.4
20260510123325 55 166 2.0 7.0 0.00 0.00 0.00 88 1012.4
20260510123225 55 240 2.0 5.0 0.00 0.00 0.00 88 1012.4
20260510123119 55 169 2.0 5.0 0.00 0.00 0.00 88 1012.4
20260510123024 55 203 2.0 5.0 0.00 0.00 0.00 88 1012.4
20260510122918 55 210 1.0 5.0 0.00 0.00 0.00 88 1012.4
20260510122818 55 195 1.0 5.0 0.00 0.00 0.00 88 1012.4
20260510122718 55 259 1.0 5.0 0.00 0.00 0.00 88 1012.4
20260510122624 55 210 2.0 4.0 0.00 0.00 0.00 88 1012.4
20260510122619 55 154 2.0 6.0 0.00 0.00 0.00 88 1012.4
20260510122518 55 147 2.0 6.0 0.00 0.00 0.00 88 1012.3
20260510122413 55 217 2.0 6.0 0.00 0.00 0.00 88 1012.3
20260510122312 55 221 2.0 6.0 0.00 0.00 0.00 88 1012.4
20260510122212 55 197 3.0 6.0 0.00 0.00 0.00 88 1012.3
20260510122112 55 225 3.0 7.0 0.00 0.00 0.00 88 1012.3
20260510122012 55 240 3.0 7.0 0.00 0.00 0.00 88 1012.3
20260510121908 55 235 3.0 7.0 0.00 0.00 0.00 88 1012.3
20260510121806 55 143 3.0 7.0 0.00 0.00 0.00 88 1012.3
20260510121706 55 253 3.0 8.0 0.00 0.00 0.00 88 1012.3
20260510121619 55 239 3.0 8.0 0.00 0.00 0.00 88 1012.3
20260510121606 55 214 3.0 8.0 0.00 0.00 0.00 88 1012.3
20260510121506 55 267 3.0 8.0 0.00 0.00 0.00 88 1012.3
20260510121402 55 127 3.0 8.0 0.00 0.00 0.00 88 1012.3
20260510121337 55 260 2.0 8.0 0.00 0.00 0.00 88 1012.3
20260510121300 55 226 3.0 8.0 0.00 0.00 0.00 88 1012.3
20260510121230 55 243 2.0 8.0 0.00 0.00 0.00 88 1012.3
20260510121101 55 139 2.0 8.0 0.00 0.00 0.00 88 1012.3
20260510120959 55 242 3.0 8.0 0.00 0.00 0.00 88 1012.3
20260510120854 55 239 3.0 8.0 0.00 0.00 0.00 88 1012.3
20260510120754 55 231 3.0 8.0 0.00 0.00 0.00 88 1012.3
20260510120654 55 236 2.0 6.0 0.00 0.00 0.00 88 1012.2
20260510120619 55 242 2.0 6.0 0.00 0.00 0.00 88 1012.3
20260510120554 55 207 2.0 6.0 0.00 0.00 0.00 88 1012.3
20260510120454 55 215 2.0 6.0 0.00 0.00 0.00 88 1012.2
20260510120348 55 180 3.0 6.0 0.00 0.00 0.00 88 1012.3
20260510120249 55 194 2.0 6.0 0.00 0.00 0.00 88 1012.2
20260510120146 55 212 2.0 6.0 0.00 0.00 0.00 88 1012.2
20260510120120 55 245 2.0 6.0 0.00 0.00 0.00 88 1012.2
20260510120046 55 251 2.0 6.0 0.00 0.00 0.00 88 1012.2
20260510115946 55 236 2.0 7.0 0.00 0.00 0.00 88 1012.2
20260510115842 55 207 2.0 7.0 0.00 0.00 0.00 88 1012.2
20260510115827 55 230 3.0 7.0 0.00 0.00 0.00 88 1012.2
20260510115743 55 212 2.0 7.0 0.00 0.00 0.00 88 1012.2
20260510115724 55 239 2.0 7.0 0.00 0.00 0.00 88 1012.2
20260510115714 55 229 2.0 7.0 0.00 0.00 0.00 88 1012.2
20260510115542 55 225 2.0 7.0 0.00 0.00 0.00 88 1012.2
20260510115455 55 238 2.0 7.0 0.00 0.00 0.00 88 1012.2
20260510115342 55 225 2.0 7.0 0.00 0.00 0.00 88 1012.2
20260510115242 55 245 2.0 7.0 0.00 0.00 0.00 88 1012.3
20260510115230 55 217 2.0 7.0 0.00 0.00 0.00 88 1012.2
20260510115042 55 161 3.0 7.0 0.00 0.00 0.00 88 1012.2
20260510114942 56 242 2.0 5.0 0.00 0.00 0.00 88 1012.2
20260510114843 56 224 3.0 5.0 0.00 0.00 0.00 88 1012.2
20260510114742 56 238 3.0 5.0 0.00 0.00 0.00 88 1012.2
20260510114642 56 229 3.0 6.0 0.00 0.00 0.00 88 1012.2
20260510114620 56 243 3.0 6.0 0.00 0.00 0.00 88 1012.2
20260510114542 56 228 3.0 6.0 0.00 0.00 0.00 88 1012.2
20260510114442 56 239 3.0 6.0 0.00 0.00 0.00 88 1012.2
20260510114342 56 188 3.0 8.0 0.00 0.00 0.00 88 1012.1
20260510114242 56 211 3.0 8.0 0.00 0.00 0.00 87 1012.2
20260510114136 56 234 3.0 8.0 0.00 0.00 0.00 87 1012.1
20260510114119 56 224 3.0 8.0 0.00 0.00 0.00 87 1012.1
20260510114107 56 223 4.0 10.0 0.00 0.00 0.00 87 1012.2
20260510114036 56 221 3.0 8.0 0.00 0.00 0.00 87 1012.2
20260510113957 56 138 3.0 8.0 0.00 0.00 0.00 87 1012.2
20260510113836 56 200 4.0 10.0 0.00 0.00 0.00 87 1012.2
20260510113740 56 222 4.0 10.0 0.00 0.00 0.00 87 1012.2
20260510113732 56 238 4.0 10.0 0.00 0.00 0.00 87 1012.2
20260510113532 56 212 4.0 10.0 0.00 0.00 0.00 87 1012.2
20260510113432 56 221 4.0 10.0 0.00 0.00 0.00 87 1012.2
20260510113333 56 240 4.0 10.0 0.00 0.00 0.00 87 1012.2
20260510113233 56 241 4.0 10.0 0.00 0.00 0.00 87 1012.3
20260510113119 56 214 4.0 10.0 0.00 0.00 0.00 87 1012.3
20260510113032 56 250 4.0 10.0 0.00 0.00 0.00 87 1012.2
20260510112936 56 155 4.0 10.0 0.00 0.00 0.00 87 1012.3
20260510112832 56 180 3.0 10.0 0.00 0.00 0.00 87 1012.2
20260510112732 56 248 3.0 10.0 0.00 0.00 0.00 87 1012.3
20260510112632 56 168 3.0 10.0 0.00 0.00 0.00 87 1012.3
20260510112621 56 136 3.0 10.0 0.00 0.00 0.00 87 1012.3
20260510112532 56 239 3.0 10.0 0.00 0.00 0.00 87 1012.3
20260510112432 56 267 2.0 7.0 0.00 0.00 0.00 87 1012.3
20260510112332 56 224 2.0 6.0 0.00 0.00 0.00 87 1012.3
20260510112233 56 245 2.0 6.0 0.00 0.00 0.00 87 1012.3
20260510112132 56 214 2.0 6.0 0.00 0.00 0.00 87 1012.3
20260510112121 56 146 2.0 6.0 0.00 0.00 0.00 87 1012.3
20260510112030 56 243 2.0 6.0 0.00 0.00 0.00 87 1012.3
20260510111924 56 225 2.0 5.0 0.00 0.00 0.00 87 1012.3
20260510111847 56 222 1.0 5.0 0.00 0.00 0.00 87 1012.2
20260510111824 56 234 2.0 5.0 0.00 0.00 0.00 87 1012.3
20260510111739 56 229 1.0 5.0 0.00 0.00 0.00 87 1012.3
20260510111729 56 222 1.0 5.0 0.00 0.00 0.00 87 1012.2
20260510111522 56 236 1.0 5.0 0.00 0.00 0.00 87 1012.2
20260510111419 56 203 1.0 5.0 0.00 0.00 0.00 87 1012.2
20260510111319 56 218 1.0 5.0 0.00 0.00 0.00 87 1012.2
20260510111218 56 198 1.0 5.0 0.00 0.00 0.00 87 1012.2
20260510111119 56 215 2.0 5.0 0.00 0.00 0.00 87 1012.2
20260510111016 56 155 2.0 5.0 0.00 0.00 0.00 87 1012.2
20260510110911 56 150 2.0 5.0 0.00 0.00 0.00 87 1012.1
20260510110810 56 219 2.0 5.0 0.00 0.00 0.00 87 1012.1
20260510110710 56 235 2.0 5.0 0.00 0.00 0.00 87 1012.1
20260510110610 56 216 2.0 5.0 0.00 0.00 0.00 87 1012.1
20260510110511 56 211 2.0 5.0 0.00 0.00 0.00 87 1012.0
20260510110406 56 233 2.0 5.0 0.00 0.00 0.00 87 1012.0
20260510110307 56 218 1.0 4.0 0.00 0.00 0.00 87 1012.0
20260510110207 56 222 1.0 4.0 0.00 0.00 0.00 87 1012.0
20260510110119 56 230 1.0 4.0 0.00 0.00 0.00 87 1012.0
20260510110106 56 235 1.0 4.0 0.00 0.00 0.00 87 1012.0
20260510110006 56 232 2.0 6.0 0.00 0.00 0.00 87 1012.0
20260510105906 56 232 2.0 7.0 0.00 0.00 0.00 87 1012.0
20260510105805 56 222 2.0 7.0 0.00 0.00 0.00 87 1012.0
20260510105704 56 226 2.0 7.0 0.00 0.00 0.00 87 1012.0
20260510105619 56 252 2.0 7.0 0.00 0.00 0.00 87 1012.0
20260510105605 56 160 2.0 7.0 0.00 0.00 0.00 87 1012.0
20260510105504 56 154 3.0 7.0 0.00 0.00 0.00 87 1012.0
20260510105402 56 153 3.0 7.0 0.00 0.00 0.00 87 1012.0
20260510105306 56 154 3.0 7.0 0.00 0.00 0.00 87 1012.0
20260510105203 56 212 3.0 7.0 0.00 0.00 0.00 86 1012.0
20260510105119 56 211 3.0 7.0 0.00 0.00 0.00 86 1012.0
20260510105102 56 238 3.0 7.0 0.00 0.00 0.00 86 1012.0
20260510105002 56 141 2.0 7.0 0.00 0.00 0.00 86 1012.0
20260510104802 56 138 2.0 4.0 0.00 0.00 0.00 86 1012.0
20260510104658 57 218 2.0 6.0 0.00 0.00 0.00 86 1012.1
20260510104618 57 232 2.0 6.0 0.00 0.00 0.00 86 1012.0
20260510104558 57 231 2.0 6.0 0.00 0.00 0.00 86 1012.0
20260510104459 57 200 2.0 6.0 0.00 0.00 0.00 86 1012.0
20260510104358 57 211 2.0 6.0 0.00 0.00 0.00 86 1012.0
20260510104258 57 210 2.0 7.0 0.00 0.00 0.00 86 1012.0
20260510104159 57 190 2.0 7.0 0.00 0.00 0.00 86 1012.0
20260510104120 57 226 2.0 7.0 0.00 0.00 0.00 86 1012.0
20260510104058 57 228 2.0 7.0 0.00 0.00 0.00 86 1012.0
20260510103958 57 219 3.0 7.0 0.00 0.00 0.00 86 1012.0
20260510103858 57 162 2.0 7.0 0.00 0.00 0.00 86 1012.0
20260510103841 57 193 2.0 7.0 0.00 0.00 0.00 86 1012.0
20260510103758 57 222 2.0 7.0 0.00 0.00 0.00 86 1012.1
20260510103726 57 148 2.0 7.0 0.00 0.00 0.00 86 1012.1
20260510103558 57 193 2.0 7.0 0.00 0.00 0.00 86 1012.0
20260510103459 57 203 3.0 7.0 0.00 0.00 0.00 86 1012.1
20260510103358 57 169 2.0 7.0 0.00 0.00 0.00 86 1012.0
20260510103338 57 232 3.0 8.0 0.00 0.00 0.00 86 1012.0
20260510103258 57 269 2.0 6.0 0.00 0.00 0.00 86 1012.1
20260510103226 57 194 3.0 6.0 0.00 0.00 0.00 86 1012.1
20260510103058 57 230 3.0 8.0 0.00 0.00 0.00 86 1012.0
20260510102952 57 269 3.0 8.0 0.00 0.00 0.00 86 1012.0
20260510102853 57 243 3.0 8.0 0.00 0.00 0.00 86 1012.1
20260510102752 57 137 3.0 8.0 0.00 0.00 0.00 86 1012.1
20260510102652 57 186 3.0 8.0 0.00 0.00 0.00 86 1012.1
20260510102617 57 210 3.0 8.0 0.00 0.00 0.00 86 1012.1
20260510102552 57 162 3.0 8.0 0.00 0.00 0.00 86 1012.1
20260510102450 57 285 3.0 8.0 0.00 0.00 0.00 86 1012.1
20260510102350 57 225 3.0 8.0 0.00 0.00 0.00 86 1012.1
20260510102251 57 212 3.0 8.0 0.00 0.00 0.00 86 1012.1
20260510102151 57 200 3.0 8.0 0.00 0.00 0.00 86 1012.0
20260510102115 57 207 3.0 8.0 0.00 0.00 0.00 86 1012.1
20260510102049 57 205 3.0 8.0 0.00 0.00 0.00 86 1012.1
20260510101948 57 204 3.0 7.0 0.00 0.00 0.00 86 1012.1
20260510101848 57 239 3.0 7.0 0.00 0.00 0.00 86 1012.1
20260510101748 57 207 3.0 7.0 0.00 0.00 0.00 86 1012.1
20260510101648 57 240 3.0 7.0 0.00 0.00 0.00 86 1012.0
20260510101613 57 240 3.0 7.0 0.00 0.00 0.00 86 1012.0
20260510101557 57 204 3.0 9.0 0.00 0.00 0.00 86 1012.0
20260510101546 57 173 3.0 7.0 0.00 0.00 0.00 86 1012.0
20260510101451 57 174 3.0 6.0 0.00 0.00 0.00 86 1012.1
20260510101442 57 159 3.0 7.0 0.00 0.00 0.00 86 1012.1
20260510101246 57 228 3.0 7.0 0.00 0.00 0.00 86 1012.0
20260510101225 57 210 3.0 7.0 0.00 0.00 0.00 86 1012.1
20260510101047 57 228 3.0 9.0 0.00 0.00 0.00 86 1012.0
20260510100946 57 210 3.0 9.0 0.00 0.00 0.00 86 1012.0
20260510100847 57 160 3.0 9.0 0.00 0.00 0.00 85 1012.1
20260510100741 57 218 3.0 9.0 0.00 0.00 0.00 85 1012.1
20260510100640 57 248 4.0 9.0 0.00 0.00 0.00 85 1012.1
20260510100614 57 242 4.0 9.0 0.00 0.00 0.00 85 1012.1
20260510100540 57 176 4.0 9.0 0.00 0.00 0.00 85 1012.1
20260510100340 57 217 4.0 9.0 0.00 0.00 0.00 85 1012.0
20260510100238 57 242 4.0 10.0 0.00 0.00 0.00 85 1012.1
20260510100138 57 225 4.0 13.0 0.00 0.00 0.00 85 1012.0
20260510100121 57 248 4.0 13.0 0.00 0.00 0.00 85 1012.0
20260510100114 57 245 4.0 13.0 0.00 0.00 0.00 85 1012.0
20260510100038 57 224 5.0 13.0 0.00 0.00 0.00 85 1012.0
20260510095959 57 245 5.0 13.0 0.00 0.00 0.00 85 1012.0
20260510095836 57 239 4.0 13.0 0.00 0.00 0.00 85 1012.0
20260510095736 57 205 4.0 13.0 0.00 0.00 0.00 85 1012.0
20260510095726 57 228 4.0 13.0 0.00 0.00 0.00 85 1012.0
20260510095536 57 236 4.0 13.0 0.00 0.00 0.00 85 1012.1
20260510095436 57 226 4.0 13.0 0.00 0.00 0.00 85 1012.1
20260510095335 58 217 3.0 13.0 0.00 0.00 0.00 85 1012.1
20260510095238 58 232 3.0 13.0 0.00 0.00 0.00 85 1012.0
20260510095136 58 225 3.0 8.0 0.00 0.00 0.00 85 1012.0
20260510095114 58 218 3.0 8.0 0.00 0.00 0.00 85 1012.0
20260510095036 58 167 2.0 8.0 0.00 0.00 0.00 85 1012.0
20260510094936 58 204 2.0 5.0 0.00 0.00 0.00 85 1012.0
20260510094837 58 116 2.0 5.0 0.00 0.00 0.00 85 1012.0
20260510094738 58 195 2.0 5.0 0.00 0.00 0.00 85 1012.0
20260510094636 58 235 2.0 5.0 0.00 0.00 0.00 85 1012.0
20260510094614 58 224 2.0 5.0 0.00 0.00 0.00 85 1012.0
20260510094535 58 226 2.0 5.0 0.00 0.00 0.00 85 1012.0
20260510094434 58 208 2.0 5.0 0.00 0.00 0.00 84 1011.9
20260510094335 58 217 3.0 5.0 0.00 0.00 0.00 84 1011.9
20260510094238 58 208 3.0 9.0 0.00 0.00 0.00 84 1012.0
20260510094134 58 228 3.0 10.0 0.00 0.00 0.00 84 1011.9
20260510094112 58 241 3.0 10.0 0.00 0.00 0.00 84 1011.9
20260510094034 58 225 3.0 10.0 0.00 0.00 0.00 84 1011.9
20260510093935 58 221 3.0 10.0 0.00 0.00 0.00 84 1011.9
20260510093832 58 231 3.0 10.0 0.00 0.00 0.00 84 1011.9
20260510093732 58 215 3.0 10.0 0.00 0.00 0.00 84 1011.9
20260510093632 58 187 3.0 10.0 0.00 0.00 0.00 84 1011.9
20260510093612 58 219 3.0 10.0 0.00 0.00 0.00 84 1011.9
20260510093532 58 217 3.0 10.0 0.00 0.00 0.00 84 1011.9
20260510093433 58 229 3.0 10.0 0.00 0.00 0.00 84 1011.9
20260510093333 58 224 3.0 10.0 0.00 0.00 0.00 84 1011.8
20260510093232 58 245 2.0 10.0 0.00 0.00 0.00 84 1011.8
20260510093132 58 233 2.0 6.0 0.00 0.00 0.00 84 1011.8
20260510093112 58 232 2.0 6.0 0.00 0.00 0.00 84 1011.8
20260510093033 58 174 3.0 6.0 0.00 0.00 0.00 84 1011.9
20260510092932 58 221 3.0 9.0 0.00 0.00 0.00 84 1011.9
20260510092826 58 223 3.0 9.0 0.00 0.00 0.00 84 1011.9
20260510092726 58 216 3.0 9.0 0.00 0.00 0.00 84 1011.9
20260510092626 58 198 3.0 9.0 0.00 0.00 0.00 84 1011.9
20260510092612 58 187 3.0 9.0 0.00 0.00 0.00 84 1011.9
20260510092526 58 218 3.0 9.0 0.00 0.00 0.00 84 1011.9
20260510092426 58 232 3.0 9.0 0.00 0.00 0.00 84 1011.9
20260510092332 58 219 3.0 9.0 0.00 0.00 0.00 84 1011.9
20260510092326 58 256 3.0 9.0 0.00 0.00 0.00 84 1011.9
20260510092229 58 232 3.0 9.0 0.00 0.00 0.00 84 1011.9
20260510092220 58 218 3.0 9.0 0.00 0.00 0.00 84 1011.9
20260510092025 58 238 3.0 9.0 0.00 0.00 0.00 84 1011.9
20260510091927 58 211 3.0 8.0 0.00 0.00 0.00 84 1011.9
20260510091834 58 219 3.0 10.0 0.00 0.00 0.00 84 1011.9
20260510091824 58 187 4.0 8.0 0.00 0.00 0.00 84 1011.9
20260510091731 58 266 3.0 8.0 0.00 0.00 0.00 84 1012.0
20260510091722 58 210 3.0 10.0 0.00 0.00 0.00 84 1011.9
20260510091525 58 207 4.0 10.0 0.00 0.00 0.00 84 1011.9
20260510091425 58 257 3.0 10.0 0.00 0.00 0.00 84 1011.9
20260510091324 58 257 3.0 10.0 0.00 0.00 0.00 84 1011.9
20260510091224 58 214 3.0 10.0 0.00 0.00 0.00 84 1011.9
20260510091121 58 235 3.0 10.0 0.00 0.00 0.00 84 1011.9
20260510091110 58 205 3.0 10.0 0.00 0.00 0.00 84 1011.9
20260510091020 58 236 4.0 11.0 0.00 0.00 0.00 84 1011.9
20260510090921 58 262 3.0 11.0 0.00 0.00 0.00 85 1011.8
20260510090831 58 276 4.0 11.0 0.00 0.00 0.00 85 1011.8
20260510090820 58 225 4.0 11.0 0.00 0.00 0.00 85 1011.9
20260510090729 58 231 4.0 11.0 0.00 0.00 0.00 85 1011.8
20260510090720 58 276 4.0 11.0 0.00 0.00 0.00 85 1011.8
20260510090518 58 239 4.0 11.0 0.00 0.00 0.00 85 1011.8
20260510090418 58 221 4.0 11.0 0.00 0.00 0.00 85 1011.8
20260510090318 58 250 4.0 11.0 0.00 0.00 0.00 85 1011.9
20260510090216 58 294 4.0 11.0 0.00 0.00 0.00 85 1011.9
20260510090124 58 236 4.0 11.0 0.00 0.00 0.00 85 1011.8
20260510090113 58 235 4.0 11.0 0.00 0.00 0.00 85 1011.8
20260510090016 58 236 4.0 9.0 0.00 0.00 0.00 85 1011.8
20260510085917 58 184 4.0 9.0 0.00 0.00 0.00 85 1011.9
20260510085815 58 248 4.0 9.0 0.00 0.00 0.00 85 1011.8
20260510085716 58 219 4.0 9.0 0.00 0.00 0.00 85 1011.8
20260510085622 58 224 4.0 9.0 0.00 0.00 0.00 85 1011.9
20260510085612 58 236 4.0 9.0 0.00 0.00 0.00 85 1011.9
20260510085557 58 228 4.0 9.0 0.00 0.00 0.00 85 1011.8
20260510085516 58 236 4.0 9.0 0.00 0.00 0.00 85 1011.8
20260510085440 58 232 4.0 9.0 0.00 0.00 0.00 85 1011.8
20260510085314 58 219 4.0 9.0 0.00 0.00 0.00 85 1011.8
20260510085229 58 193 4.0 9.0 0.00 0.00 0.00 85 1011.9
20260510085221 58 228 4.0 9.0 0.00 0.00 0.00 85 1011.8
20260510085015 58 221 4.0 9.0 0.00 0.00 0.00 85 1011.9
20260510084909 58 224 4.0 9.0 0.00 0.00 0.00 85 1011.9
20260510084809 58 217 4.0 9.0 0.00 0.00 0.00 85 1011.8
20260510084707 58 253 4.0 8.0 0.00 0.00 0.00 84 1011.8
20260510084613 58 207 4.0 8.0 0.00 0.00 0.00 84 1011.8
20260510084606 58 186 4.0 8.0 0.00 0.00 0.00 84 1011.8
20260510084506 58 217 4.0 8.0 0.00 0.00 0.00 84 1011.8
20260510084405 58 184 4.0 8.0 0.00 0.00 0.00 84 1011.9
20260510084304 58 158 4.0 8.0 0.00 0.00 0.00 84 1011.8
20260510084205 58 205 4.0 8.0 0.00 0.00 0.00 84 1011.8
20260510084110 58 207 4.0 8.0 0.00 0.00 0.00 84 1011.8
20260510084104 58 207 4.0 8.0 0.00 0.00 0.00 84 1011.8
20260510084005 58 252 4.0 8.0 0.00 0.00 0.00 84 1011.8
20260510083904 58 235 4.0 8.0 0.00 0.00 0.00 84 1011.8
20260510083804 58 238 4.0 8.0 0.00 0.00 0.00 84 1011.8
20260510083704 58 214 4.0 8.0 0.00 0.00 0.00 84 1011.8
20260510083610 58 224 4.0 10.0 0.00 0.00 0.00 84 1011.8
20260510083604 58 229 4.0 10.0 0.00 0.00 0.00 84 1011.8
20260510083505 58 194 4.0 10.0 0.00 0.00 0.00 84 1011.8
20260510083404 58 235 4.0 10.0 0.00 0.00 0.00 83 1011.8
20260510083303 58 225 4.0 10.0 0.00 0.00 0.00 83 1011.7
20260510083202 58 235 4.0 10.0 0.00 0.00 0.00 83 1011.7
20260510083110 58 233 4.0 10.0 0.00 0.00 0.00 83 1011.8
20260510083102 58 207 4.0 10.0 0.00 0.00 0.00 83 1011.8
20260510083002 58 207 4.0 10.0 0.00 0.00 0.00 83 1011.8
20260510082903 59 198 4.0 10.0 0.00 0.00 0.00 83 1011.7
20260510082802 59 198 4.0 10.0 0.00 0.00 0.00 83 1011.7
20260510082656 59 211 4.0 10.0 0.00 0.00 0.00 83 1011.7
20260510082610 59 250 4.0 8.0 0.00 0.00 0.00 83 1011.8
20260510082557 59 233 4.0 8.0 0.00 0.00 0.00 83 1011.8
20260510082455 59 215 4.0 8.0 0.00 0.00 0.00 83 1011.7
20260510082354 59 226 4.0 8.0 0.00 0.00 0.00 83 1011.7
20260510082254 59 214 4.0 8.0 0.00 0.00 0.00 83 1011.7
20260510082148 59 229 4.0 8.0 0.00 0.00 0.00 83 1011.7
20260510082109 59 219 3.0 8.0 0.00 0.00 0.00 83 1011.7
20260510082048 59 222 3.0 8.0 0.00 0.00 0.00 82 1011.7
20260510081946 59 229 3.0 8.0 0.00 0.00 0.00 82 1011.7
20260510081846 59 240 3.0 8.0 0.00 0.00 0.00 82 1011.8
20260510081746 59 165 3.0 8.0 0.00 0.00 0.00 82 1011.8
20260510081640 59 173 4.0 8.0 0.00 0.00 0.00 82 1011.8
20260510081605 59 226 4.0 8.0 0.00 0.00 0.00 82 1011.8
20260510081541 59 231 4.0 8.0 0.00 0.00 0.00 82 1011.8
20260510081440 59 215 3.0 8.0 0.00 0.00 0.00 82 1011.8
20260510081340 59 155 3.0 8.0 0.00 0.00 0.00 82 1011.8
20260510081240 59 215 3.0 8.0 0.00 0.00 0.00 82 1011.8
20260510081134 59 172 3.0 8.0 0.00 0.00 0.00 82 1011.8
20260510081105 59 233 3.0 8.0 0.00 0.00 0.00 82 1011.8
20260510081035 59 198 3.0 8.0 0.00 0.00 0.00 82 1011.9
20260510080934 59 177 3.0 8.0 0.00 0.00 0.00 82 1011.8
20260510080834 59 225 3.0 8.0 0.00 0.00 0.00 82 1011.8
20260510080738 59 185 3.0 8.0 0.00 0.00 0.00 82 1011.8
20260510080631 59 103 2.0 8.0 0.00 0.00 0.00 81 1011.8
20260510080617 59 160 2.0 8.0 0.00 0.00 0.00 82 1011.8
20260510080530 59 207 2.0 8.0 0.00 0.00 0.00 81 1011.8
20260510080430 59 139 2.0 5.0 0.00 0.00 0.00 81 1011.8
20260510080330 59 242 2.0 5.0 0.00 0.00 0.00 81 1011.8
20260510080228 59 195 2.0 5.0 0.00 0.00 0.00 81 1011.8
20260510080122 60 233 2.0 4.0 0.00 0.00 0.00 81 1011.8
20260510080108 60 235 2.0 4.0 0.00 0.00 0.00 81 1011.8
20260510080022 60 161 2.0 4.0 0.00 0.00 0.00 81 1011.8
20260510075925 60 223 2.0 4.0 0.00 0.00 0.00 81 1011.8
20260510075822 60 153 2.0 5.0 0.00 0.00 0.00 81 1011.8
20260510075722 60 136 2.0 5.0 0.00 0.00 0.00 81 1011.8
20260510075622 60 225 1.0 5.0 0.00 0.00 0.00 81 1011.8
20260510075604 60 224 1.0 5.0 0.00 0.00 0.00 81 1011.8
20260510075520 60 176 1.0 5.0 0.00 0.00 0.00 81 1011.7
20260510075420 60 217 1.0 5.0 0.00 0.00 0.00 81 1011.7
20260510075319 60 236 1.0 5.0 0.00 0.00 0.00 81 1011.7
20260510075215 60 148 1.0 5.0 0.00 0.00 0.00 81 1011.7
20260510075116 60 196 1.0 5.0 0.00 0.00 0.00 81 1011.7
20260510075106 60 204 1.0 5.0 0.00 0.00 0.00 81 1011.7
20260510075057 60 188 1.0 4.0 0.00 0.00 0.00 81 1011.8
20260510075010 60 195 1.0 5.0 0.00 0.00 0.00 81 1011.7
20260510074942 60 124 1.0 5.0 0.00 0.00 0.00 81 1011.7
20260510074810 60 217 1.0 4.0 0.00 0.00 0.00 81 1011.7
20260510074722 60 224 1.0 4.0 0.00 0.00 0.00 81 1011.7
20260510074605 60 188 1.0 4.0 0.00 0.00 0.00 81 1011.8
20260510074504 60 188 1.0 4.0 0.00 0.00 0.00 81 1011.7
20260510074404 60 189 1.0 4.0 0.00 0.00 0.00 81 1011.7
20260510074304 60 212 1.0 4.0 0.00 0.00 0.00 81 1011.8
20260510074204 60 212 1.0 4.0 0.00 0.00 0.00 81 1011.7
20260510074111 60 143 1.0 4.0 0.00 0.00 0.00 81 1011.8
20260510074102 60 193 1.0 4.0 0.00 0.00 0.00 81 1011.8
20260510074003 60 203 1.0 4.0 0.00 0.00 0.00 81 1011.8
20260510073902 60 158 1.0 4.0 0.00 0.00 0.00 81 1011.7
20260510073822 60 146 1.0 4.0 0.00 0.00 0.00 81 1011.8
20260510073800 60 236 1.0 4.0 0.00 0.00 0.00 81 1011.8
20260510073714 60 236 1.0 4.0 0.00 0.00 0.00 81 1011.8
20260510073555 60 146 1.0 4.0 0.00 0.00 0.00 81 1011.8
20260510073454 60 222 1.0 4.0 0.00 0.00 0.00 81 1011.8
20260510073354 60 187 1.0 4.0 0.00 0.00 0.00 81 1011.8
20260510073255 60 137 1.0 4.0 0.00 0.00 0.00 81 1011.8
20260510073152 60 136 1.0 4.0 0.00 0.00 0.00 81 1011.8
20260510073104 60 126 1.0 4.0 0.00 0.00 0.00 81 1011.8
20260510073046 60 150 1.0 4.0 0.00 0.00 0.00 81 1011.8
20260510072946 60 150 1.0 4.0 0.00 0.00 0.00 81 1011.8
20260510072846 60 139 1.0 4.0 0.00 0.00 0.00 81 1011.8
20260510072746 60 161 1.0 4.0 0.00 0.00 0.00 81 1011.8
20260510072647 60 134 1.0 4.0 0.00 0.00 0.00 81 1011.8
20260510072604 60 134 1.0 4.0 0.00 0.00 0.00 80 1011.8
20260510072541 60 138 1.0 4.0 0.00 0.00 0.00 80 1011.8
20260510072440 60 131 2.0 4.0 0.00 0.00 0.00 80 1011.8
20260510072341 60 131 2.0 4.0 0.00 0.00 0.00 80 1011.8
20260510072240 60 131 2.0 4.0 0.00 0.00 0.00 80 1011.7
20260510072141 60 121 2.0 4.0 0.00 0.00 0.00 80 1011.8
20260510072104 60 131 2.0 4.0 0.00 0.00 0.00 80 1011.8
20260510072036 60 128 2.0 4.0 0.00 0.00 0.00 80 1011.7
20260510071937 60 129 2.0 4.0 0.00 0.00 0.00 80 1011.7
20260510071836 60 131 2.0 4.0 0.00 0.00 0.00 80 1011.7
20260510071738 60 131 2.0 4.0 0.00 0.00 0.00 80 1011.7
20260510071635 60 120 2.0 4.0 0.00 0.00 0.00 80 1011.7
20260510071605 60 131 2.0 4.0 0.00 0.00 0.00 80 1011.7
20260510071530 61 113 2.0 4.0 0.00 0.00 0.00 80 1011.7
20260510071428 61 129 2.0 4.0 0.00 0.00 0.00 80 1011.8
20260510071328 61 131 2.0 5.0 0.00 0.00 0.00 80 1011.7
20260510071228 61 137 2.0 5.0 0.00 0.00 0.00 80 1011.7
20260510071128 61 146 2.0 5.0 0.00 0.00 0.00 80 1011.7
20260510071104 61 143 2.0 5.0 0.00 0.00 0.00 80 1011.7
20260510071022 61 137 2.0 5.0 0.00 0.00 0.00 80 1011.7
20260510070926 61 134 2.0 5.0 0.00 0.00 0.00 79 1011.7
20260510070822 61 126 2.0 5.0 0.00 0.00 0.00 79 1011.7
20260510070722 61 113 2.0 5.0 0.00 0.00 0.00 79 1011.7
20260510070621 61 132 2.0 5.0 0.00 0.00 0.00 79 1011.7
20260510070605 61 137 2.0 5.0 0.00 0.00 0.00 79 1011.7
20260510070522 61 141 2.0 5.0 0.00 0.00 0.00 79 1011.7
20260510070422 61 143 2.0 5.0 0.00 0.00 0.00 79 1011.7
20260510070323 61 149 2.0 4.0 0.00 0.00 0.00 79 1011.7
20260510070222 61 148 2.0 4.0 0.00 0.00 0.00 79 1011.7
20260510070122 61 132 2.0 4.0 0.00 0.00 0.00 79 1011.7
20260510070108 61 143 2.0 4.0 0.00 0.00 0.00 79 1011.7
20260510070021 61 155 2.0 4.0 0.00 0.00 0.00 79 1011.7
20260510065928 61 138 2.0 4.0 0.00 0.00 0.00 79 1011.7
20260510065820 61 139 2.0 4.0 0.00 0.00 0.00 78 1011.7
20260510065720 61 143 1.0 4.0 0.00 0.00 0.00 78 1011.7
20260510065620 61 105 2.0 4.0 0.00 0.00 0.00 78 1011.6
20260510065601 61 146 2.0 4.0 0.00 0.00 0.00 78 1011.6
20260510065520 61 146 2.0 6.0 0.00 0.00 0.00 78 1011.7
20260510065421 62 143 2.0 6.0 0.00 0.00 0.00 78 1011.7
20260510065320 62 134 2.0 6.0 0.00 0.00 0.00 78 1011.7
20260510065220 62 132 2.0 6.0 0.00 0.00 0.00 78 1011.7
20260510065121 62 183 2.0 6.0 0.00 0.00 0.00 78 1011.7
20260510065100 62 136 2.0 6.0 0.00 0.00 0.00 78 1011.7
20260510065021 62 123 2.0 6.0 0.00 0.00 0.00 78 1011.7
20260510064923 62 160 2.0 6.0 0.00 0.00 0.00 78 1011.8
20260510064816 62 121 2.0 6.0 0.00 0.00 0.00 78 1011.7
20260510064715 62 127 2.0 6.0 0.00 0.00 0.00 77 1011.7
20260510064615 62 138 2.0 6.0 0.00 0.00 0.00 77 1011.7
20260510064554 62 132 2.0 6.0 0.00 0.00 0.00 77 1011.7
20260510064515 62 143 1.0 5.0 0.00 0.00 0.00 77 1011.7
20260510064414 62 136 1.0 4.0 0.00 0.00 0.00 77 1011.7
20260510064313 62 129 1.0 4.0 0.00 0.00 0.00 77 1011.7
20260510064212 62 130 1.0 4.0 0.00 0.00 0.00 77 1011.7
20260510064110 62 139 1.0 4.0 0.00 0.00 0.00 77 1011.6
20260510064048 62 128 1.0 4.0 0.00 0.00 0.00 77 1011.6
20260510064011 62 135 1.0 4.0 0.00 0.00 0.00 77 1011.6
20260510063908 62 133 1.0 4.0 0.00 0.00 0.00 76 1011.6
20260510063803 62 142 1.0 3.0 0.00 0.00 0.00 76 1011.6
20260510063702 62 135 1.0 3.0 0.00 0.00 0.00 76 1011.6
20260510063602 62 135 1.0 3.0 0.00 0.00 0.00 76 1011.6
20260510063543 62 139 1.0 3.0 0.00 0.00 0.00 76 1011.6
20260510063502 62 138 1.0 3.0 0.00 0.00 0.00 76 1011.6
20260510063402 63 138 1.0 3.0 0.00 0.00 0.00 76 1011.5
20260510063300 63 168 0.0 3.0 0.00 0.00 0.00 76 1011.5
20260510063200 63 97 0.0 2.0 0.00 0.00 0.00 75 1011.5
20260510063035 63 98 1.0 3.0 0.00 0.00 0.00 75 1011.5
20260510062958 63 98 1.0 3.0 0.00 0.00 0.00 75 1011.5
20260510062857 63 97 1.0 3.0 0.00 0.00 0.00 75 1011.5
20260510062753 63 195 1.0 3.0 0.00 0.00 0.00 75 1011.5
20260510062651 63 195 1.0 3.0 0.00 0.00 0.00 75 1011.5
20260510062530 63 208 1.0 3.0 0.00 0.00 0.00 75 1011.5
20260510062451 63 208 1.0 3.0 0.00 0.00 0.00 75 1011.5
20260510062350 63 208 1.0 3.0 0.00 0.00 0.00 75 1011.5
20260510062255 63 131 1.0 2.0 0.00 0.00 0.00 75 1011.5
20260510062247 63 208 1.0 3.0 0.00 0.00 0.00 75 1011.5
20260510062155 63 208 1.0 3.0 0.00 0.00 0.00 75 1011.5
20260510062147 63 118 1.0 3.0 0.00 0.00 0.00 75 1011.5
20260510061947 63 131 1.0 3.0 0.00 0.00 0.00 75 1011.5
20260510061844 63 150 1.0 3.0 0.00 0.00 0.00 74 1011.5
20260510061745 63 150 1.0 3.0 0.00 0.00 0.00 74 1011.5
20260510061741 63 150 1.0 3.0 0.00 0.00 0.00 74 1011.5
20260510061638 63 150 1.0 3.0 0.00 0.00 0.00 74 1011.5
20260510061627 63 150 1.0 3.0 0.00 0.00 0.00 74 1011.5
20260510061438 63 153 0.0 3.0 0.00 0.00 0.00 74 1011.5
20260510061338 63 127 0.0 3.0 0.00 0.00 0.00 74 1011.5
20260510061233 63 156 0.0 3.0 0.00 0.00 0.00 74 1011.5
20260510061133 63 188 0.0 3.0 0.00 0.00 0.00 74 1011.5
20260510061032 63 200 0.0 3.0 0.00 0.00 0.00 74 1011.4
20260510061012 63 211 0.0 2.0 0.00 0.00 0.00 74 1011.4
20260510060933 64 212 1.0 2.0 0.00 0.00 0.00 74 1011.4
20260510060832 64 212 1.0 2.0 0.00 0.00 0.00 73 1011.5
20260510060732 64 211 1.0 3.0 0.00 0.00 0.00 73 1011.5
20260510060630 64 211 1.0 3.0 0.00 0.00 0.00 73 1011.5
20260510060531 64 224 1.0 3.0 0.00 0.00 0.00 73 1011.5
20260510060506 64 248 1.0 4.0 0.00 0.00 0.00 73 1011.5
20260510060428 64 136 1.0 4.0 0.00 0.00 0.00 73 1011.5
20260510060327 64 136 1.0 4.0 0.00 0.00 0.00 73 1011.5
20260510060227 64 136 2.0 4.0 0.00 0.00 0.00 73 1011.5
20260510060124 64 203 2.0 4.0 0.00 0.00 0.00 73 1011.5
20260510060022 64 143 2.0 4.0 0.00 0.00 0.00 73 1011.6
20260510055959 64 166 2.0 4.0 0.00 0.00 0.00 73 1011.6
20260510055922 64 200 2.0 4.0 0.00 0.00 0.00 72 1011.5
20260510055819 64 224 2.0 4.0 0.00 0.00 0.00 72 1011.5
20260510055717 64 203 2.0 4.0 0.00 0.00 0.00 72 1011.5
20260510055616 64 203 2.0 4.0 0.00 0.00 0.00 72 1011.5
20260510055516 64 255 2.0 4.0 0.00 0.00 0.00 72 1011.5
20260510055453 64 243 2.0 4.0 0.00 0.00 0.00 72 1011.5
20260510055416 64 183 2.0 3.0 0.00 0.00 0.00 72 1011.5
20260510055314 64 211 2.0 5.0 0.00 0.00 0.00 72 1011.5
20260510055208 64 150 2.0 5.0 0.00 0.00 0.00 72 1011.5
20260510055109 64 228 2.0 5.0 0.00 0.00 0.00 72 1011.5
20260510055009 64 228 2.0 6.0 0.00 0.00 0.00 72 1011.5
20260510054951 64 228 2.0 6.0 0.00 0.00 0.00 72 1011.5
20260510054910 64 228 2.0 6.0 0.00 0.00 0.00 72 1011.5
20260510054808 64 222 2.0 6.0 0.00 0.00 0.00 72 1011.5
20260510054703 64 165 3.0 7.0 0.00 0.00 0.00 71 1011.5
20260510054602 64 239 3.0 7.0 0.00 0.00 0.00 71 1011.5
20260510054502 64 239 3.0 7.0 0.00 0.00 0.00 71 1011.5
20260510054442 64 228 3.0 7.0 0.00 0.00 0.00 71 1011.5
20260510054402 64 230 3.0 7.0 0.00 0.00 0.00 71 1011.5
20260510054302 64 236 3.0 7.0 0.00 0.00 0.00 71 1011.5
20260510054158 64 188 3.0 7.0 0.00 0.00 0.00 71 1011.5
20260510054057 64 222 3.0 7.0 0.00 0.00 0.00 71 1011.5
20260510053957 65 233 3.0 7.0 0.00 0.00 0.00 71 1011.5
20260510053936 65 176 2.0 7.0 0.00 0.00 0.00 71 1011.5
20260510053856 65 235 2.0 7.0 0.00 0.00 0.00 71 1011.5
20260510053756 65 229 2.0 7.0 0.00 0.00 0.00 71 1011.5
20260510053651 65 207 2.0 6.0 0.00 0.00 0.00 71 1011.4
20260510053550 65 203 2.0 6.0 0.00 0.00 0.00 71 1011.5
20260510053451 65 219 2.0 6.0 0.00 0.00 0.00 71 1011.4
20260510053430 65 219 2.0 6.0 0.00 0.00 0.00 71 1011.5
20260510053350 65 146 2.0 6.0 0.00 0.00 0.00 71 1011.5
20260510053250 65 240 1.0 6.0 0.00 0.00 0.00 71 1011.4
20260510053151 65 229 2.0 6.0 0.00 0.00 0.00 71 1011.5
20260510053049 65 217 2.0 6.0 0.00 0.00 0.00 70 1011.5
20260510052949 65 133 2.0 7.0 0.00 0.00 0.00 70 1011.5
20260510052924 65 180 2.0 7.0 0.00 0.00 0.00 70 1011.5
20260510052846 65 179 2.0 7.0 0.00 0.00 0.00 70 1011.5
20260510052745 65 221 2.0 7.0 0.00 0.00 0.00 70 1011.5
20260510052641 65 207 2.0 7.0 0.00 0.00 0.00 70 1011.4
20260510052539 65 150 2.0 7.0 0.00 0.00 0.00 70 1011.5
20260510052439 65 223 2.0 7.0 0.00 0.00 0.00 70 1011.4
20260510052419 65 191 2.0 7.0 0.00 0.00 0.00 70 1011.4
20260510052339 65 191 2.0 7.0 0.00 0.00 0.00 70 1011.4
20260510052238 65 195 2.0 7.0 0.00 0.00 0.00 70 1011.4
20260510052132 65 221 2.0 7.0 0.00 0.00 0.00 70 1011.4
20260510052032 65 226 2.0 7.0 0.00 0.00 0.00 70 1011.4
20260510051933 65 150 2.0 6.0 0.00 0.00 0.00 70 1011.4
20260510051917 65 158 2.0 6.0 0.00 0.00 0.00 70 1011.4
20260510051833 65 145 2.0 6.0 0.00 0.00 0.00 69 1011.3
20260510051732 65 203 2.0 6.0 0.00 0.00 0.00 69 1011.4
20260510051629 65 150 2.0 6.0 0.00 0.00 0.00 70 1011.3
20260510051526 65 238 2.0 8.0 0.00 0.00 0.00 69 1011.3
20260510051427 65 225 2.0 8.0 0.00 0.00 0.00 69 1011.3
20260510051407 65 158 2.0 8.0 0.00 0.00 0.00 69 1011.3
20260510051326 65 139 3.0 8.0 0.00 0.00 0.00 69 1011.3
20260510051226 65 217 3.0 8.0 0.00 0.00 0.00 69 1011.2
20260510051121 66 201 3.0 8.0 0.00 0.00 0.00 69 1011.2
20260510051020 66 232 3.0 8.0 0.00 0.00 0.00 69 1011.2
20260510050920 66 226 3.0 8.0 0.00 0.00 0.00 69 1011.2
20260510050900 66 229 3.0 8.0 0.00 0.00 0.00 69 1011.2
20260510050820 66 262 3.0 8.0 0.00 0.00 0.00 69 1011.2
20260510050721 66 153 4.0 8.0 0.00 0.00 0.00 69 1011.1
20260510050616 66 266 4.0 8.0 0.00 0.00 0.00 69 1011.2
20260510050516 66 225 4.0 8.0 0.00 0.00 0.00 69 1011.2
20260510050416 66 158 4.0 8.0 0.00 0.00 0.00 68 1011.2
20260510050354 66 156 4.0 8.0 0.00 0.00 0.00 68 1011.2
20260510050316 66 217 4.0 8.0 0.00 0.00 0.00 68 1011.1
20260510050214 66 168 4.0 8.0 0.00 0.00 0.00 68 1011.1
20260510050108 66 242 4.0 8.0 0.00 0.00 0.00 68 1011.2
20260510050008 66 248 4.0 8.0 0.00 0.00 0.00 68 1011.1
20260510045912 66 211 3.0 8.0 0.00 0.00 0.00 68 1011.1
20260510045849 66 236 3.0 8.0 0.00 0.00 0.00 68 1011.2
20260510045809 66 200 3.0 8.0 0.00 0.00 0.00 68 1011.2
20260510045708 66 229 3.0 8.0 0.00 0.00 0.00 68 1011.1
20260510045605 66 243 3.0 7.0 0.00 0.00 0.00 68 1011.1
20260510045504 67 217 3.0 7.0 0.00 0.00 0.00 68 1011.1
20260510045404 67 146 3.0 7.0 0.00 0.00 0.00 68 1011.1
20260510045342 67 195 3.0 10.0 0.00 0.00 0.00 68 1011.1
20260510045306 67 235 4.0 11.0 0.00 0.00 0.00 68 1011.1
20260510045202 67 214 3.0 11.0 0.00 0.00 0.00 67 1011.1
20260510045057 67 205 3.0 11.0 0.00 0.00 0.00 67 1011.1
20260510044956 67 208 3.0 11.0 0.00 0.00 0.00 67 1011.1
20260510044856 67 226 4.0 11.0 0.00 0.00 0.00 67 1011.1
20260510044835 67 243 4.0 11.0 0.00 0.00 0.00 67 1011.0
20260510044756 67 205 4.0 11.0 0.00 0.00 0.00 67 1011.0
20260510044657 67 236 4.0 11.0 0.00 0.00 0.00 67 1011.0
20260510044552 67 241 3.0 11.0 0.00 0.00 0.00 67 1011.0
20260510044451 67 215 4.0 11.0 0.00 0.00 0.00 67 1011.0
20260510044350 67 239 3.0 11.0 0.00 0.00 0.00 67 1011.0
20260510044330 67 259 3.0 6.0 0.00 0.00 0.00 67 1011.0
20260510044250 67 214 3.0 6.0 0.00 0.00 0.00 67 1011.0
20260510044150 67 243 3.0 6.0 0.00 0.00 0.00 67 1010.9
20260510044054 67 229 2.0 6.0 0.00 0.00 0.00 67 1010.9
20260510044049 67 239 3.0 6.0 0.00 0.00 0.00 67 1010.9
20260510043948 67 233 3.0 6.0 0.00 0.00 0.00 67 1010.9
20260510043937 67 240 2.0 6.0 0.00 0.00 0.00 67 1010.9
20260510043746 67 221 2.0 6.0 0.00 0.00 0.00 67 1010.9
20260510043644 68 205 2.0 6.0 0.00 0.00 0.00 67 1010.9
20260510043539 68 190 2.0 6.0 0.00 0.00 0.00 67 1010.9
20260510043438 68 243 2.0 6.0 0.00 0.00 0.00 67 1010.8
20260510043338 68 207 3.0 6.0 0.00 0.00 0.00 67 1010.8
20260510043319 68 233 3.0 6.0 0.00 0.00 0.00 67 1010.8
20260510043239 68 253 3.0 7.0 0.00 0.00 0.00 67 1010.8
20260510043138 68 232 3.0 7.0 0.00 0.00 0.00 67 1010.9
20260510043035 68 221 3.0 7.0 0.00 0.00 0.00 66 1010.8
20260510042934 68 255 3.0 7.0 0.00 0.00 0.00 66 1010.8
20260510042835 68 233 3.0 7.0 0.00 0.00 0.00 66 1010.8
20260510042811 68 243 3.0 7.0 0.00 0.00 0.00 66 1010.8
20260510042738 68 236 3.0 7.0 0.00 0.00 0.00 66 1010.8
20260510042633 68 233 3.0 7.0 0.00 0.00 0.00 66 1010.8
20260510042527 68 238 3.0 7.0 0.00 0.00 0.00 66 1010.8
20260510042427 68 221 3.0 7.0 0.00 0.00 0.00 66 1010.8
20260510042326 68 239 2.0 7.0 0.00 0.00 0.00 66 1010.7
20260510042307 68 253 2.0 7.0 0.00 0.00 0.00 66 1010.7
20260510042247 69 231 2.0 5.0 0.00 0.00 0.00 66 1010.7
20260510042226 68 211 2.0 7.0 0.00 0.00 0.00 66 1010.7
20260510042134 68 230 2.0 7.0 0.00 0.00 0.00 66 1010.7
20260510042021 69 210 2.0 7.0 0.00 0.00 0.00 66 1010.7
20260510041924 69 240 2.0 6.0 0.00 0.00 0.00 66 1010.7
20260510041910 69 216 2.0 5.0 0.00 0.00 0.00 66 1010.7
20260510041721 69 246 2.0 5.0 0.00 0.00 0.00 66 1010.7
20260510041620 69 245 2.0 10.0 0.00 0.00 0.00 66 1010.7
20260510041518 69 205 2.0 10.0 0.00 0.00 0.00 65 1010.6
20260510041418 69 240 2.0 10.0 0.00 0.00 0.00 65 1010.7
20260510041318 69 236 2.0 10.0 0.00 0.00 0.00 65 1010.7
20260510041255 69 236 2.0 10.0 0.00 0.00 0.00 65 1010.7
20260510041217 69 243 2.0 10.0 0.00 0.00 0.00 65 1010.7
20260510041114 69 214 2.0 10.0 0.00 0.00 0.00 65 1010.7
20260510041014 69 257 2.0 10.0 0.00 0.00 0.00 65 1010.7
20260510041008 69 236 2.0 10.0 0.00 0.00 0.00 65 1010.7
20260510040911 69 226 2.0 10.0 0.00 0.00 0.00 65 1010.6
20260510040859 69 263 2.0 10.0 0.00 0.00 0.00 65 1010.7
20260510040709 69 250 2.0 8.0 0.00 0.00 0.00 65 1010.7
20260510040608 69 232 2.0 8.0 0.00 0.00 0.00 65 1010.6
20260510040505 69 250 2.0 8.0 0.00 0.00 0.00 65 1010.6
20260510040404 69 226 2.0 8.0 0.00 0.00 0.00 65 1010.6
20260510040304 69 242 2.0 8.0 0.00 0.00 0.00 65 1010.6
20260510040241 69 284 2.0 8.0 0.00 0.00 0.00 65 1010.6
20260510040204 69 235 2.0 8.0 0.00 0.00 0.00 65 1010.6
20260510035959 70 243 2.0 8.0 0.00 0.00 0.00 65 1010.6
20260510035856 70 214 2.0 8.0 0.00 0.00 0.00 64 1010.5
20260510035756 70 226 2.0 10.0 0.00 0.00 0.00 64 1010.6
20260510035741 70 250 2.0 10.0 0.00 0.00 0.00 64 1010.6
20260510035656 70 233 2.0 10.0 0.00 0.00 0.00 64 1010.6
20260510035556 70 238 2.0 10.0 0.00 0.00 0.00 64 1010.5
20260510035500 70 274 2.0 10.0 0.00 0.00 0.00 64 1010.6
20260510035453 70 240 2.0 10.0 0.00 0.00 0.00 64 1010.5
20260510035352 70 243 2.0 10.0 0.00 0.00 0.00 64 1010.5
20260510035344 70 256 2.0 10.0 0.00 0.00 0.00 64 1010.6
20260510035152 70 224 2.0 10.0 0.00 0.00 0.00 64 1010.6
20260510035051 70 222 2.0 10.0 0.00 0.00 0.00 64 1010.6
20260510034944 70 257 3.0 10.0 0.00 0.00 0.00 64 1010.6
20260510034845 70 268 3.0 10.0 0.00 0.00 0.00 64 1010.6
20260510034744 70 289 3.0 9.0 0.00 0.00 0.00 64 1010.5
20260510034724 70 226 3.0 9.0 0.00 0.00 0.00 64 1010.5
20260510034644 70 193 3.0 9.0 0.00 0.00 0.00 64 1010.5
20260510034545 70 256 3.0 11.0 0.00 0.00 0.00 64 1010.5
20260510034441 71 232 4.0 12.0 0.00 0.00 0.00 64 1010.5
20260510034339 71 259 3.0 12.0 0.00 0.00 0.00 64 1010.4
20260510034238 71 231 3.0 12.0 0.00 0.00 0.00 64 1010.4
20260510034217 71 253 3.0 12.0 0.00 0.00 0.00 64 1010.4
20260510034138 71 233 3.0 12.0 0.00 0.00 0.00 64 1010.4
20260510034040 71 238 3.0 12.0 0.00 0.00 0.00 64 1010.4
20260510033932 71 231 3.0 12.0 0.00 0.00 0.00 64 1010.4
20260510033833 71 255 3.0 12.0 0.00 0.00 0.00 63 1010.4
20260510033733 71 259 3.0 12.0 0.00 0.00 0.00 63 1010.5
20260510033712 71 231 3.0 12.0 0.00 0.00 0.00 63 1010.5
20260510033633 71 228 3.0 12.0 0.00 0.00 0.00 63 1010.4
20260510033533 71 221 3.0 12.0 0.00 0.00 0.00 64 1010.4
20260510033426 71 256 3.0 12.0 0.00 0.00 0.00 64 1010.4
20260510033326 71 240 4.0 12.0 0.00 0.00 0.00 63 1010.4
20260510033227 71 256 4.0 12.0 0.00 0.00 0.00 63 1010.4
20260510033209 71 228 4.0 12.0 0.00 0.00 0.00 63 1010.4
20260510033126 71 266 4.0 12.0 0.00 0.00 0.00 63 1010.4
20260510033026 71 289 4.0 12.0 0.00 0.00 0.00 63 1010.3
20260510032920 71 257 4.0 12.0 0.00 0.00 0.00 63 1010.3
20260510032820 72 256 4.0 12.0 0.00 0.00 0.00 63 1010.4
20260510032720 72 225 3.0 12.0 0.00 0.00 0.00 63 1010.4
20260510032708 72 250 3.0 12.0 0.00 0.00 0.00 63 1010.4
20260510032620 72 235 3.0 12.0 0.00 0.00 0.00 63 1010.3
20260510032521 72 255 3.0 11.0 0.00 0.00 0.00 63 1010.3
20260510032414 72 225 2.0 8.0 0.00 0.00 0.00 63 1010.3
20260510032315 72 210 3.0 8.0 0.00 0.00 0.00 62 1010.3
20260510032209 72 233 2.0 8.0 0.00 0.00 0.00 62 1010.3
20260510032115 72 236 2.0 8.0 0.00 0.00 0.00 62 1010.3
20260510032014 72 240 2.0 9.0 0.00 0.00 0.00 62 1010.3
20260510031914 72 246 2.0 9.0 0.00 0.00 0.00 62 1010.2
20260510031812 72 233 3.0 10.0 0.00 0.00 0.00 62 1010.2
20260510031707 73 233 3.0 10.0 0.00 0.00 0.00 62 1010.2
20260510031610 73 264 4.0 10.0 0.00 0.00 0.00 61 1010.3
20260510031508 73 241 4.0 10.0 0.00 0.00 0.00 61 1010.2
20260510031403 73 240 4.0 10.0 0.00 0.00 0.00 61 1010.2
20260510031302 73 240 4.0 10.0 0.00 0.00 0.00 61 1010.2
20260510031208 73 248 4.0 10.0 0.00 0.00 0.00 61 1010.2
20260510031202 73 248 4.0 10.0 0.00 0.00 0.00 61 1010.2
20260510031103 73 225 4.0 10.0 0.00 0.00 0.00 61 1010.2
20260510031002 73 208 4.0 10.0 0.00 0.00 0.00 60 1010.2
20260510030934 74 204 5.0 10.0 0.00 0.00 0.00 61 1010.1
20260510030857 74 238 4.0 10.0 0.00 0.00 0.00 61 1010.1
20260510030820 74 264 4.0 10.0 0.00 0.00 0.00 61 1010.1
20260510030705 74 225 4.0 10.0 0.00 0.00 0.00 61 1010.1
20260510030656 74 242 4.0 10.0 0.00 0.00 0.00 61 1010.1
20260510030556 74 243 4.0 10.0 0.00 0.00 0.00 61 1010.1
20260510030548 74 262 4.0 10.0 0.00 0.00 0.00 61 1010.1
20260510030353 74 235 4.0 10.0 0.00 0.00 0.00 61 1010.1
20260510030328 74 243 4.0 10.0 0.00 0.00 0.00 61 1010.0
20260510030153 74 266 5.0 10.0 0.00 0.00 0.00 61 1010.1
20260510030052 74 244 5.0 10.0 0.00 0.00 0.00 60 1010.0
20260510025950 74 273 5.0 10.0 0.00 0.00 0.00 61 1010.0
20260510025848 74 226 5.0 10.0 0.00 0.00 0.00 60 1010.0
20260510025749 74 270 5.0 10.0 0.00 0.00 0.00 60 1010.1
20260510025705 74 230 5.0 10.0 0.00 0.00 0.00 60 1010.1
20260510025646 75 249 5.0 10.0 0.00 0.00 0.00 60 1010.1
20260510025546 75 250 5.0 10.0 0.00 0.00 0.00 60 1010.1
20260510025444 75 228 5.0 10.0 0.00 0.00 0.00 60 1010.1
20260510025338 75 219 5.0 11.0 0.00 0.00 0.00 60 1010.0
20260510025239 75 243 5.0 11.0 0.00 0.00 0.00 60 1010.0
20260510025204 75 241 5.0 12.0 0.00 0.00 0.00 60 1010.0
20260510025138 75 235 5.0 12.0 0.00 0.00 0.00 60 1010.0
20260510024938 75 233 5.0 12.0 0.00 0.00 0.00 60 1010.0
20260510024832 76 270 5.0 12.0 0.00 0.00 0.00 60 1010.0
20260510024733 76 264 5.0 12.0 0.00 0.00 0.00 60 1010.0
20260510024704 76 242 5.0 12.0 0.00 0.00 0.00 60 1010.0
20260510024632 76 238 4.0 12.0 0.00 0.00 0.00 60 1010.0
20260510024532 76 236 4.0 12.0 0.00 0.00 0.00 60 1010.0
20260510024432 76 243 4.0 12.0 0.00 0.00 0.00 60 1010.0
20260510024326 76 231 4.0 12.0 0.00 0.00 0.00 60 1010.0
20260510024226 76 221 4.0 12.0 0.00 0.00 0.00 60 1009.9
20260510024205 76 256 4.0 9.0 0.00 0.00 0.00 60 1009.9
20260510024126 76 215 4.0 8.0 0.00 0.00 0.00 60 1009.9
20260510024027 76 246 4.0 8.0 0.00 0.00 0.00 60 1010.0
20260510023926 76 200 4.0 8.0 0.00 0.00 0.00 60 1009.9
20260510023824 77 233 4.0 8.0 0.00 0.00 0.00 59 1009.9
20260510023725 77 222 4.0 8.0 0.00 0.00 0.00 59 1009.9
20260510023705 77 203 4.0 8.0 0.00 0.00 0.00 59 1009.9
20260510023624 77 255 4.0 8.0 0.00 0.00 0.00 59 1009.9
20260510023522 77 248 4.0 8.0 0.00 0.00 0.00 59 1009.8
20260510023421 77 217 4.0 8.0 0.00 0.00 0.00 59 1009.9
20260510023316 77 242 4.0 8.0 0.00 0.00 0.00 59 1009.9
20260510023216 77 239 4.0 7.0 0.00 0.00 0.00 59 1009.8
20260510023206 77 242 4.0 7.0 0.00 0.00 0.00 59 1009.8
20260510023116 77 242 4.0 9.0 0.00 0.00 0.00 59 1009.8
20260510023017 77 238 4.0 9.0 0.00 0.00 0.00 59 1009.8
20260510022917 77 242 4.0 9.0 0.00 0.00 0.00 59 1009.9
20260510022817 77 253 4.0 9.0 0.00 0.00 0.00 58 1009.8
20260510022716 77 238 4.0 9.0 0.00 0.00 0.00 59 1009.9
20260510022702 77 238 4.0 9.0 0.00 0.00 0.00 59 1009.9
20260510022614 77 243 4.0 9.0 0.00 0.00 0.00 59 1009.9
20260510022515 77 225 5.0 10.0 0.00 0.00 0.00 59 1009.9
20260510022414 77 238 5.0 10.0 0.00 0.00 0.00 59 1009.8
20260510022314 77 246 5.0 10.0 0.00 0.00 0.00 59 1009.8
20260510022214 77 162 5.0 10.0 0.00 0.00 0.00 59 1009.8
20260510022203 78 235 5.0 10.0 0.00 0.00 0.00 59 1009.8
20260510022115 78 236 5.0 10.0 0.00 0.00 0.00 58 1009.9
20260510022012 78 245 5.0 10.0 0.00 0.00 0.00 58 1009.8
20260510021910 78 224 5.0 10.0 0.00 0.00 0.00 58 1009.8
20260510021811 78 242 5.0 10.0 0.00 0.00 0.00 58 1009.9
20260510021713 78 207 5.0 10.0 0.00 0.00 0.00 58 1009.8
20260510021702 78 183 5.0 10.0 0.00 0.00 0.00 58 1009.8
20260510021607 78 232 4.0 9.0 0.00 0.00 0.00 58 1009.8
20260510021506 78 233 4.0 9.0 0.00 0.00 0.00 58 1009.8
20260510021407 78 256 4.0 8.0 0.00 0.00 0.00 58 1009.8
20260510021304 78 253 4.0 8.0 0.00 0.00 0.00 58 1009.9
20260510021220 78 229 4.0 9.0 0.00 0.00 0.00 58 1009.9
20260510021105 78 239 4.0 9.0 0.00 0.00 0.00 57 1009.9
20260510021005 78 195 4.0 9.0 0.00 0.00 0.00 57 1009.9
20260510020907 78 252 4.0 11.0 0.00 0.00 0.00 57 1009.8
20260510020805 78 239 4.0 11.0 0.00 0.00 0.00 57 1009.8
20260510020719 78 238 4.0 11.0 0.00 0.00 0.00 57 1009.8
20260510020403 79 238 5.0 13.0 0.00 0.00 0.00 57 1009.8
20260510020301 79 255 5.0 13.0 0.00 0.00 0.00 57 1009.9
20260510020201 79 225 5.0 13.0 0.00 0.00 0.00 57 1009.9
20260510020053 79 243 5.0 13.0 0.00 0.00 0.00 57 1009.9
20260510015953 79 245 5.0 13.0 0.00 0.00 0.00 57 1009.9
20260510015852 79 227 4.0 13.0 0.00 0.00 0.00 56 1009.9
20260510015752 79 238 4.0 13.0 0.00 0.00 0.00 56 1009.9
20260510015654 79 243 4.0 13.0 0.00 0.00 0.00 57 1009.9
20260510015546 79 250 4.0 12.0 0.00 0.00 0.00 56 1009.9
20260510015447 79 235 4.0 12.0 0.00 0.00 0.00 57 1009.9
20260510015347 79 230 4.0 12.0 0.00 0.00 0.00 57 1009.9
20260510015247 79 135 4.0 12.0 0.00 0.00 0.00 57 1009.9
20260510015150 79 221 4.0 12.0 0.00 0.00 0.00 57 1009.9
20260510015040 79 256 4.0 12.0 0.00 0.00 0.00 57 1010.0
20260510014940 79 214 5.0 12.0 0.00 0.00 0.00 56 1010.0
20260510014841 79 246 5.0 12.0 0.00 0.00 0.00 56 1010.0
20260510014740 79 195 5.0 12.0 0.00 0.00 0.00 56 1009.9
20260510014642 80 215 5.0 12.0 0.00 0.00 0.00 56 1009.9
20260510014535 80 222 6.0 14.0 0.00 0.00 0.00 56 1009.9
20260510014435 80 266 6.0 14.0 0.00 0.00 0.00 56 1009.9
20260510014334 80 235 6.0 14.0 0.00 0.00 0.00 56 1009.9
20260510014235 80 207 6.0 14.0 0.00 0.00 0.00 56 1009.9
20260510014136 80 208 6.0 14.0 0.00 0.00 0.00 55 1009.9
20260510014030 80 245 6.0 14.0 0.00 0.00 0.00 55 1009.9
20260510013930 80 257 7.0 14.0 0.00 0.00 0.00 56 1009.9
20260510013830 80 240 7.0 14.0 0.00 0.00 0.00 56 1010.0
20260510013731 80 214 7.0 14.0 0.00 0.00 0.00 55 1009.9
20260510013630 80 248 7.0 14.0 0.00 0.00 0.00 55 1010.0
20260510013522 80 243 7.0 14.0 0.00 0.00 0.00 56 1009.9
20260510013422 80 248 8.0 14.0 0.00 0.00 0.00 56 1009.9
20260510013322 80 160 8.0 14.0 0.00 0.00 0.00 56 1009.9
20260510013222 80 240 7.0 14.0 0.00 0.00 0.00 55 1010.0
20260510013124 80 253 7.0 14.0 0.00 0.00 0.00 56 1010.0
20260510013017 80 230 7.0 14.0 0.00 0.00 0.00 56 1010.0
20260510012916 80 232 7.0 14.0 0.00 0.00 0.00 55 1010.0
20260510012817 80 250 7.0 14.0 0.00 0.00 0.00 55 1009.9
20260510012716 80 219 7.0 14.0 0.00 0.00 0.00 55 1010.0
20260510012618 81 240 7.0 14.0 0.00 0.00 0.00 55 1010.0
20260510012513 81 232 6.0 14.0 0.00 0.00 0.00 55 1010.0
20260510012410 81 231 6.0 14.0 0.00 0.00 0.00 55 1010.0
20260510012311 81 174 6.0 14.0 0.00 0.00 0.00 55 1009.9
20260510012210 81 221 6.0 14.0 0.00 0.00 0.00 55 1010.0
20260510012113 81 217 6.0 14.0 0.00 0.00 0.00 55 1010.0
20260510012005 81 246 5.0 14.0 0.00 0.00 0.00 55 1009.9
20260510011907 81 233 5.0 14.0 0.00 0.00 0.00 55 1009.9
20260510011805 81 243 5.0 16.0 0.00 0.00 0.00 55 1009.9
20260510011704 81 231 4.0 16.0 0.00 0.00 0.00 54 1009.9
20260510011605 81 238 4.0 16.0 0.00 0.00 0.00 55 1010.0
20260510011459 82 224 4.0 16.0 0.00 0.00 0.00 54 1010.0
20260510011359 82 231 5.0 16.0 0.00 0.00 0.00 55 1010.0
20260510011325 82 242 5.0 16.0 0.00 0.00 0.00 54 1010.0
20260510011259 82 253 5.0 16.0 0.00 0.00 0.00 54 1009.9
20260510011215 82 222 4.0 16.0 0.00 0.00 0.00 54 1009.9
20260510011204 82 242 5.0 16.0 0.00 0.00 0.00 54 1010.0
20260510010955 82 231 5.0 16.0 0.00 0.00 0.00 54 1009.9
20260510010855 82 259 5.0 16.0 0.00 0.00 0.00 54 1010.0
20260510010755 82 221 4.0 14.0 0.00 0.00 0.00 54 1010.0
20260510010654 82 269 4.0 14.0 0.00 0.00 0.00 54 1010.0
20260510010608 82 207 5.0 14.0 0.00 0.00 0.00 53 1010.0
20260510010447 82 238 5.0 14.0 0.00 0.00 0.00 53 1010.0
20260510010346 82 270 5.0 14.0 0.00 0.00 0.00 53 1010.0
20260510010247 82 232 5.0 12.0 0.00 0.00 0.00 54 1010.0
20260510010146 82 232 5.0 12.0 0.00 0.00 0.00 53 1009.9
20260510010100 82 231 5.0 12.0 0.00 0.00 0.00 54 1009.9
20260510005941 82 250 5.0 12.0 0.00 0.00 0.00 54 1010.0
20260510005840 82 259 6.0 12.0 0.00 0.00 0.00 54 1010.0
20260510005810 83 210 6.0 12.0 0.00 0.00 0.00 53 1010.0
20260510005740 83 246 6.0 12.0 0.00 0.00 0.00 53 1010.0
20260510005658 83 259 6.0 12.0 0.00 0.00 0.00 53 1009.9
20260510005647 83 210 6.0 12.0 0.00 0.00 0.00 53 1010.0
20260510005434 83 238 6.0 11.0 0.00 0.00 0.00 54 1010.0
20260510005334 83 208 5.0 11.0 0.00 0.00 0.00 54 1010.0
20260510005238 83 229 5.0 11.0 0.00 0.00 0.00 54 1010.0
20260510005135 83 193 5.0 11.0 0.00 0.00 0.00 54 1010.0
20260510005038 83 284 5.0 11.0 0.00 0.00 0.00 53 1010.0
20260510004930 83 216 4.0 11.0 0.00 0.00 0.00 53 1010.0
20260510004829 83 233 4.0 11.0 0.00 0.00 0.00 53 1010.0
20260510004729 83 223 4.0 10.0 0.00 0.00 0.00 53 1010.0
20260510004629 83 248 4.0 10.0 0.00 0.00 0.00 53 1010.0
20260510004529 83 224 5.0 13.0 0.00 0.00 0.00 52 1010.0
20260510004422 83 232 5.0 13.0 0.00 0.00 0.00 52 1010.0
20260510004322 83 243 5.0 13.0 0.00 0.00 0.00 52 1010.0
20260510004223 83 239 6.0 14.0 0.00 0.00 0.00 52 1010.0
20260510004122 83 238 6.0 14.0 0.00 0.00 0.00 52 1010.0
20260510004023 83 248 7.0 14.0 0.00 0.00 0.00 52 1010.0
20260510003920 83 245 7.0 14.0 0.00 0.00 0.00 51 1010.0
20260510003821 83 226 7.0 14.0 0.00 0.00 0.00 51 1010.0
20260510003721 83 257 7.0 14.0 0.00 0.00 0.00 51 1010.0
20260510003618 83 233 7.0 14.0 0.00 0.00 0.00 51 1010.0
20260510003517 83 253 7.0 14.0 0.00 0.00 0.00 50 1010.0
20260510003410 83 253 6.0 14.0 0.00 0.00 0.00 50 1010.0
20260510003310 84 232 6.0 14.0 0.00 0.00 0.00 50 1010.0
20260510003211 84 253 6.0 14.0 0.00 0.00 0.00 49 1010.0
20260510003111 84 232 5.0 13.0 0.00 0.00 0.00 49 1010.1
20260510003012 84 207 5.0 13.0 0.00 0.00 0.00 49 1010.0
20260510002905 84 245 5.0 12.0 0.00 0.00 0.00 49 1010.0
20260510002805 84 207 5.0 12.0 0.00 0.00 0.00 49 1010.0
20260510002704 85 233 4.0 12.0 0.00 0.00 0.00 49 1010.0
20260510002604 85 302 4.0 12.0 0.00 0.00 0.00 49 1010.0
20260510002520 85 225 4.0 12.0 0.00 0.00 0.00 50 1010.0
20260510002402 85 231 4.0 11.0 0.00 0.00 0.00 50 1010.0
20260510002306 85 232 5.0 12.0 0.00 0.00 0.00 50 1010.0
20260510002225 85 249 6.0 12.0 0.00 0.00 0.00 49 1010.0
20260510002202 85 229 5.0 12.0 0.00 0.00 0.00 50 1009.9
20260510002116 85 245 5.0 12.0 0.00 0.00 0.00 49 1009.9
20260510002106 85 249 6.0 12.0 0.00 0.00 0.00 49 1010.0
20260510001856 85 253 6.0 12.0 0.00 0.00 0.00 49 1010.0
20260510001757 85 221 6.0 14.0 0.00 0.00 0.00 49 1010.0
20260510001655 85 222 6.0 14.0 0.00 0.00 0.00 49 1010.0
20260510001554 85 228 6.0 14.0 0.00 0.00 0.00 48 1010.0
20260510001454 85 264 6.0 14.0 0.00 0.00 0.00 48 1010.0
20260510001347 85 231 6.0 14.0 0.00 0.00 0.00 48 1010.0
20260510001246 86 256 5.0 14.0 0.00 0.00 0.00 47 1010.0
20260510001147 86 229 5.0 14.0 0.00 0.00 0.00 47 1010.0
20260510001046 86 219 5.0 14.0 0.00 0.00 0.00 47 1010.0
20260510000950 86 218 4.0 14.0 0.00 0.00 0.00 46 1010.1
20260510000840 86 238 4.0 14.0 0.00 0.00 0.00 47 1010.0
20260510000741 86 156 4.0 12.0 0.00 0.00 0.00 47 1010.0
20260510000640 86 238 4.0 12.0 0.00 0.00 0.00 47 1010.0
20260510000541 86 218 4.0 12.0 0.00 0.00 0.00 46 1010.1
20260510000443 86 222 4.0 12.0 0.00 0.00 0.00 46 1010.1
20260510000335 86 260 4.0 12.0 0.00 0.00 0.00 46 1010.0
20260510000237 86 302 3.0 12.0 0.00 0.00 0.00 46 1010.1
20260510000153 87 271 3.0 10.0 0.00 0.00 0.00 45 1010.1
20260510000135 86 226 3.0 10.0 0.00 0.00 0.00 45 1010.1
20260510000053 87 245 3.0 10.0 0.00 0.00 0.00 46 1010.1
20260510000043 87 271 3.0 10.0 0.00 0.00 0.00 45 1010.1
20260509235831 87 239 3.0 10.0 0.00 0.00 0.00 45 1010.1
20260509235728 87 233 2.0 10.0 0.00 0.00 0.00 45 1010.1
20260509235629 87 233 3.0 9.0 0.00 0.00 0.00 45 1010.1
20260509235619 87 238 4.0 10.0 0.00 0.00 0.00 45 1010.2
20260509235528 87 253 4.0 10.0 0.00 0.00 0.00 45 1010.2
20260509235513 87 311 3.0 10.0 0.00 0.00 0.00 45 1010.1
20260509235323 87 231 4.0 10.0 0.00 0.00 0.00 46 1010.1
20260509235252 87 243 4.0 10.0 0.00 0.00 0.00 46 1010.2
20260509235123 87 243 4.0 10.0 0.00 0.00 0.00 46 1010.2
20260509235040 87 225 4.0 10.0 0.00 0.00 0.00 46 1010.1
20260509235030 87 238 4.0 10.0 0.00 0.00 0.00 45 1010.2
20260509234853 87 260 5.0 10.0 0.00 0.00 0.00 46 1010.2
20260509234817 87 226 5.0 10.0 0.00 0.00 0.00 46 1010.2
20260509234745 87 217 5.0 10.0 0.00 0.00 0.00 46 1010.2
20260509234616 87 217 5.0 10.0 0.00 0.00 0.00 45 1010.2
20260509234532 87 253 4.0 10.0 0.00 0.00 0.00 46 1010.2
20260509234522 87 260 5.0 10.0 0.00 0.00 0.00 46 1010.2
20260509234311 87 217 4.0 10.0 0.00 0.00 0.00 46 1010.2
20260509234210 87 200 4.0 10.0 0.00 0.00 0.00 46 1010.2
20260509234110 87 271 5.0 10.0 0.00 0.00 0.00 46 1010.2
20260509234010 87 246 5.0 10.0 0.00 0.00 0.00 46 1010.2
20260509233916 87 248 4.0 10.0 0.00 0.00 0.00 46 1010.2
20260509233910 87 163 4.0 10.0 0.00 0.00 0.00 46 1010.2
20260509233807 87 228 4.0 10.0 0.00 0.00 0.00 46 1010.2
20260509233706 87 236 4.0 10.0 0.00 0.00 0.00 46 1010.2
20260509233606 87 225 4.0 11.0 0.00 0.00 0.00 46 1010.2
20260509233507 87 249 5.0 11.0 0.00 0.00 0.00 47 1010.2
20260509233413 87 243 5.0 11.0 0.00 0.00 0.00 46 1010.2
20260509233404 87 207 5.0 11.0 0.00 0.00 0.00 46 1010.2
20260509233259 87 238 5.0 11.0 0.00 0.00 0.00 46 1010.2
20260509233159 87 212 5.0 11.0 0.00 0.00 0.00 46 1010.3
20260509233059 87 238 5.0 11.0 0.00 0.00 0.00 46 1010.3
20260509232958 87 250 4.0 11.0 0.00 0.00 0.00 46 1010.3
20260509232913 87 231 4.0 11.0 0.00 0.00 0.00 46 1010.2
20260509232858 87 215 4.0 11.0 0.00 0.00 0.00 46 1010.2
20260509232752 87 231 4.0 11.0 0.00 0.00 0.00 46 1010.2
20260509232653 87 248 4.0 11.0 0.00 0.00 0.00 46 1010.2
20260509232552 87 199 4.0 11.0 0.00 0.00 0.00 46 1010.3
20260509232452 87 229 4.0 11.0 0.00 0.00 0.00 46 1010.2
20260509232413 87 273 5.0 11.0 0.00 0.00 0.00 46 1010.2
20260509232353 87 243 5.0 11.0 0.00 0.00 0.00 46 1010.2
20260509232248 88 248 4.0 11.0 0.00 0.00 0.00 46 1010.2
20260509232147 87 266 4.0 11.0 0.00 0.00 0.00 46 1010.2
20260509232046 87 249 4.0 11.0 0.00 0.00 0.00 46 1010.3
20260509231947 87 217 4.0 11.0 0.00 0.00 0.00 46 1010.3
20260509231914 87 257 4.0 11.0 0.00 0.00 0.00 45 1010.2
20260509231846 88 208 4.0 11.0 0.00 0.00 0.00 45 1010.3
20260509231740 88 226 4.0 11.0 0.00 0.00 0.00 45 1010.3
20260509231640 88 225 3.0 11.0 0.00 0.00 0.00 45 1010.3
20260509231541 88 192 3.0 11.0 0.00 0.00 0.00 45 1010.3
20260509231441 88 151 2.0 9.0 0.00 0.00 0.00 45 1010.3
20260509231412 89 192 2.0 7.0 0.00 0.00 0.00 45 1010.3
20260509231340 89 239 2.0 7.0 0.00 0.00 0.00 45 1010.4
20260509231237 89 249 2.0 7.0 0.00 0.00 0.00 45 1010.3
20260509231135 89 250 2.0 7.0 0.00 0.00 0.00 45 1010.4
20260509231034 89 240 2.0 7.0 0.00 0.00 0.00 44 1010.3
20260509230934 89 263 2.0 7.0 0.00 0.00 0.00 44 1010.3
20260509230914 89 231 2.0 7.0 0.00 0.00 0.00 44 1010.3
20260509230834 89 224 2.0 7.0 0.00 0.00 0.00 45 1010.3
20260509230729 89 332 2.0 7.0 0.00 0.00 0.00 45 1010.4
20260509230628 89 243 2.0 7.0 0.00 0.00 0.00 44 1010.4
20260509230529 89 214 2.0 7.0 0.00 0.00 0.00 44 1010.3
20260509230429 89 267 2.0 7.0 0.00 0.00 0.00 44 1010.4
20260509230414 89 264 2.0 7.0 0.00 0.00 0.00 44 1010.4
20260509230328 89 221 2.0 7.0 0.00 0.00 0.00 45 1010.4
20260509230222 88 232 2.0 6.0 0.00 0.00 0.00 45 1010.3
20260509230133 88 260 3.0 8.0 0.00 0.00 0.00 44 1010.4
20260509230122 88 222 2.0 6.0 0.00 0.00 0.00 44 1010.4
20260509230029 88 259 2.0 6.0 0.00 0.00 0.00 44 1010.4
20260509230021 88 197 3.0 8.0 0.00 0.00 0.00 44 1010.4
20260509225822 88 211 3.0 8.0 0.00 0.00 0.00 44 1010.4
20260509225719 88 236 2.0 8.0 0.00 0.00 0.00 44 1010.5
20260509225616 88 207 2.0 8.0 0.00 0.00 0.00 45 1010.5
20260509225517 88 232 2.0 8.0 0.00 0.00 0.00 44 1010.5
20260509225407 88 281 2.0 8.0 0.00 0.00 0.00 43 1010.5
20260509225316 88 281 2.0 8.0 0.00 0.00 0.00 42 1010.5
20260509225212 88 339 3.0 8.0 0.00 0.00 0.00 43 1010.5
20260509225110 88 245 3.0 10.0 0.00 0.00 0.00 43 1010.5
20260509225010 89 229 3.0 10.0 0.00 0.00 0.00 43 1010.5
20260509224912 89 253 2.0 10.0 0.00 0.00 0.00 44 1010.6
20260509224810 89 311 3.0 10.0 0.00 0.00 0.00 43 1010.5
20260509224709 89 232 3.0 10.0 0.00 0.00 0.00 45 1010.6
20260509224608 89 229 3.0 10.0 0.00 0.00 0.00 44 1010.6
20260509224508 89 218 3.0 10.0 0.00 0.00 0.00 43 1010.6
20260509224407 89 302 3.0 10.0 0.00 0.00 0.00 44 1010.5
20260509224304 89 296 3.0 10.0 0.00 0.00 0.00 43 1010.6
20260509224159 89 224 3.0 10.0 0.00 0.00 0.00 43 1010.6
20260509224059 89 219 2.0 10.0 0.00 0.00 0.00 44 1010.6
20260509223959 89 236 2.0 10.0 0.00 0.00 0.00 44 1010.6
20260509223908 89 232 2.0 10.0 0.00 0.00 0.00 43 1010.6
20260509223859 89 214 2.0 10.0 0.00 0.00 0.00 43 1010.6
20260509223758 89 231 2.0 10.0 0.00 0.00 0.00 43 1010.7
20260509223656 89 291 1.0 5.0 0.00 0.00 0.00 43 1010.7
20260509223630 90 305 2.0 9.0 0.00 0.00 0.00 43 1010.7
20260509223556 89 316 2.0 7.0 0.00 0.00 0.00 42 1010.6
20260509223517 90 4 2.0 9.0 0.00 0.00 0.00 43 1010.7
20260509223355 90 304 2.0 9.0 0.00 0.00 0.00 42 1010.7
20260509223252 90 304 2.0 9.0 0.00 0.00 0.00 42 1010.7
20260509223148 90 305 2.0 9.0 0.00 0.00 0.00 42 1010.7
20260509223046 90 305 3.0 9.0 0.00 0.00 0.00 41 1010.7
20260509222947 90 359 3.0 9.0 0.00 0.00 0.00 42 1010.7
20260509222919 90 0 3.0 9.0 0.00 0.00 0.00 42 1010.7
20260509222846 90 359 3.0 9.0 0.00 0.00 0.00 41 1010.7
20260509222746 90 318 3.0 9.0 0.00 0.00 0.00 42 1010.7
20260509222640 90 246 3.0 9.0 0.00 0.00 0.00 41 1010.7
20260509222621 90 353 2.0 8.0 0.00 0.00 0.00 41 1010.7
20260509222541 90 226 2.0 8.0 0.00 0.00 0.00 41 1010.7
20260509222515 90 316 2.0 8.0 0.00 0.00 0.00 41 1010.7
20260509222341 90 316 2.0 8.0 0.00 0.00 0.00 41 1010.8
20260509222240 90 212 2.0 8.0 0.00 0.00 0.00 41 1010.8
20260509222140 90 218 2.0 7.0 0.00 0.00 0.00 41 1010.8
20260509222130 90 225 2.0 5.0 0.00 0.00 0.00 41 1010.8
20260509222041 90 207 2.0 7.0 0.00 0.00 0.00 40 1010.8
20260509222015 90 214 2.0 7.0 0.00 0.00 0.00 40 1010.8
20260509221738 90 120 1.0 5.0 0.00 0.00 0.00 41 1010.9
20260509221631 90 283 1.0 5.0 0.00 0.00 0.00 40 1010.8
20260509221529 90 183 1.0 5.0 0.00 0.00 0.00 41 1010.9
20260509221404 90 319 1.0 5.0 0.00 0.00 0.00 39 1010.9
20260509221326 90 319 1.0 5.0 0.00 0.00 0.00 39 1010.8
20260509221224 90 319 1.0 5.0 0.00 0.00 0.00 39 1010.9
20260509221120 90 239 1.0 3.0 0.00 0.00 0.00 40 1010.9
20260509221021 90 236 1.0 4.0 0.00 0.00 0.00 39 1010.9
20260509220921 90 239 2.0 10.0 0.00 0.00 0.00 39 1010.9
20260509220904 90 212 2.0 13.0 0.00 0.00 0.00 39 1010.9
20260509220821 90 229 2.0 13.0 0.00 0.00 0.00 40 1010.9
20260509220718 90 229 2.0 13.0 0.00 0.00 0.00 41 1010.9
20260509220616 89 221 2.0 13.0 0.00 0.00 0.00 41 1010.9
20260509220517 89 217 2.0 13.0 0.00 0.00 0.00 41 1010.9
20260509220415 89 206 3.0 13.0 0.00 0.00 0.00 41 1010.9
20260509220351 89 198 3.0 13.0 0.00 0.00 0.00 42 1010.9
20260509220315 89 232 3.0 13.0 0.00 0.00 0.00 41 1010.9
20260509220212 89 232 3.0 13.0 0.00 0.00 0.00 41 1010.9
20260509220107 89 226 3.0 13.0 0.00 0.00 0.00 40 1010.9
20260509220006 89 169 2.0 13.0 0.00 0.00 0.00 39 1011.0
20260509215907 89 215 2.0 10.0 0.00 0.00 0.00 39 1010.9
20260509215846 89 274 2.0 7.0 0.00 0.00 0.00 39 1010.9
20260509215806 89 238 2.0 7.0 0.00 0.00 0.00 39 1010.9
20260509215706 89 136 2.0 7.0 0.00 0.00 0.00 38 1010.9
20260509215614 89 326 2.0 9.0 0.00 0.00 0.00 37 1011.0
20260509215607 89 321 2.0 7.0 0.00 0.00 0.00 37 1010.9
20260509215504 89 321 2.0 9.0 0.00 0.00 0.00 37 1010.9
20260509215450 89 336 2.0 9.0 0.00 0.00 0.00 37 1010.9
20260509215305 89 4 2.0 9.0 0.00 0.00 0.00 37 1011.0
20260509215200 89 335 2.0 9.0 0.00 0.00 0.00 36 1011.0
20260509215059 89 333 2.0 9.0 0.00 0.00 0.00 37 1011.0
20260509214958 89 287 2.0 9.0 0.00 0.00 0.00 37 1011.0
20260509214859 89 263 2.0 9.0 0.00 0.00 0.00 37 1011.0
20260509214834 89 229 2.0 9.0 0.00 0.00 0.00 39 1011.0
20260509214757 89 229 2.0 9.0 0.00 0.00 0.00 38 1011.0
20260509214654 89 229 2.0 9.0 0.00 0.00 0.00 38 1011.0
20260509214549 89 238 2.0 9.0 0.00 0.00 0.00 38 1011.0
20260509214448 89 231 2.0 8.0 0.00 0.00 0.00 38 1011.1
20260509214349 89 314 2.0 8.0 0.00 0.00 0.00 37 1011.1
20260509214329 89 302 2.0 10.0 0.00 0.00 0.00 38 1011.1
20260509214249 89 319 2.0 10.0 0.00 0.00 0.00 38 1011.1
20260509214148 89 350 2.0 10.0 0.00 0.00 0.00 39 1011.1
20260509214044 88 319 2.0 10.0 0.00 0.00 0.00 39 1011.1
20260509213945 88 319 2.0 10.0 0.00 0.00 0.00 38 1011.1
20260509213844 88 321 2.0 10.0 0.00 0.00 0.00 38 1011.2
20260509213822 88 321 2.0 10.0 0.00 0.00 0.00 37 1011.2
20260509213744 88 320 2.0 10.0 0.00 0.00 0.00 38 1011.2
20260509213642 88 284 2.0 10.0 0.00 0.00 0.00 38 1011.2
20260509213538 88 264 2.0 10.0 0.00 0.00 0.00 38 1011.2
20260509213438 88 344 2.0 10.0 0.00 0.00 0.00 37 1011.2
20260509213338 89 357 2.0 10.0 0.00 0.00 0.00 37 1011.3
20260509213315 89 328 2.0 7.0 0.00 0.00 0.00 39 1011.3
20260509213238 89 314 2.0 7.0 0.00 0.00 0.00 39 1011.3
20260509213136 89 296 2.0 7.0 0.00 0.00 0.00 38 1011.3
20260509213031 89 262 1.0 7.0 0.00 0.00 0.00 38 1011.3
20260509212930 88 5 1.0 7.0 0.00 0.00 0.00 39 1011.3
20260509212810 88 226 2.0 7.0 0.00 0.00 0.00 39 1011.4
20260509212731 88 226 2.0 7.0 0.00 0.00 0.00 39 1011.4
20260509212630 88 226 2.0 7.0 0.00 0.00 0.00 41 1011.5
20260509212525 88 226 2.0 7.0 0.00 0.00 0.00 38 1011.5
20260509212424 88 298 2.0 7.0 0.00 0.00 0.00 38 1011.4
20260509212324 88 318 2.0 7.0 0.00 0.00 0.00 38 1011.5
20260509212306 88 309 2.0 7.0 0.00 0.00 0.00 39 1011.5
20260509212224 88 322 2.0 7.0 0.00 0.00 0.00 39 1011.5
20260509212123 88 231 2.0 8.0 0.00 0.00 0.00 40 1011.5
20260509212024 87 210 2.0 8.0 0.00 0.00 0.00 42 1011.5
20260509212018 88 302 2.0 8.0 0.00 0.00 0.00 39 1011.5
20260509211924 87 201 2.0 8.0 0.00 0.00 0.00 40 1011.5
20260509211910 87 219 2.0 8.0 0.00 0.00 0.00 41 1011.5
20260509211719 87 285 2.0 8.0 0.00 0.00 0.00 42 1011.5
20260509211618 87 285 2.0 8.0 0.00 0.00 0.00 40 1011.5
20260509211518 87 340 2.0 8.0 0.00 0.00 0.00 40 1011.6
20260509211417 88 337 1.0 8.0 0.00 0.00 0.00 42 1011.6
20260509211317 88 352 1.0 8.0 0.00 0.00 0.00 41 1011.5
20260509211251 88 351 1.0 8.0 0.00 0.00 0.00 42 1011.5
20260509211214 88 311 2.0 8.0 0.00 0.00 0.00 42 1011.6
20260509211113 88 332 2.0 8.0 0.00 0.00 0.00 42 1011.6
20260509211014 87 307 2.0 8.0 0.00 0.00 0.00 44 1011.7
20260509211009 88 308 2.0 8.0 0.00 0.00 0.00 42 1011.6
20260509210909 88 318 2.0 8.0 0.00 0.00 0.00 43 1011.6
20260509210857 87 318 2.0 8.0 0.00 0.00 0.00 44 1011.6
20260509210708 87 321 2.0 8.0 0.00 0.00 0.00 44 1011.7
20260509210606 87 8 2.0 8.0 0.00 0.00 0.00 42 1011.6
20260509210504 87 334 2.0 8.0 0.00 0.00 0.00 44 1011.7
20260509210405 87 282 2.0 8.0 0.00 0.00 0.00 42 1011.7
20260509210303 87 23 1.0 8.0 0.00 0.00 0.00 42 1011.7
20260509210240 87 349 1.0 8.0 0.00 0.00 0.00 42 1011.7
20260509210203 87 302 1.0 8.0 0.00 0.00 0.00 42 1011.7
20260509210100 87 351 1.0 6.0 0.00 0.00 0.00 42 1011.7
20260509210001 87 34 1.0 6.0 0.00 0.00 0.00 41 1011.7
20260509205901 88 284 1.0 6.0 0.00 0.00 0.00 41 1011.8
20260509205759 88 304 1.0 6.0 0.00 0.00 0.00 43 1011.7
20260509205735 88 43 1.0 6.0 0.00 0.00 0.00 45 1011.7
20260509205656 88 242 1.0 6.0 0.00 0.00 0.00 45 1011.7
20260509205554 87 333 1.0 6.0 0.00 0.00 0.00 42 1011.8
20260509205448 87 352 1.0 6.0 0.00 0.00 0.00 45 1011.8
20260509205349 87 231 1.0 5.0 0.00 0.00 0.00 46 1011.8
20260509205229 87 231 2.0 5.0 0.00 0.00 0.00 45 1011.8
20260509205148 87 245 2.0 5.0 0.00 0.00 0.00 45 1011.8
20260509205048 87 295 2.0 5.0 0.00 0.00 0.00 47 1011.8
20260509204944 87 307 2.0 5.0 0.00 0.00 0.00 47 1011.8
20260509204842 87 305 2.0 5.0 0.00 0.00 0.00 46 1011.8
20260509204743 87 40 2.0 5.0 0.00 0.00 0.00 46 1011.8
20260509204723 87 52 1.0 5.0 0.00 0.00 0.00 46 1011.8
20260509204642 87 321 1.0 5.0 0.00 0.00 0.00 47 1011.8
20260509204542 87 203 1.0 4.0 0.00 0.00 0.00 47 1011.9
20260509204440 87 337 1.0 4.0 0.00 0.00 0.00 46 1011.9
20260509204346 87 321 1.0 4.0 0.00 0.00 0.00 46 1011.9
20260509204239 87 311 1.0 4.0 0.00 0.00 0.00 46 1011.9
20260509204216 87 316 1.0 4.0 0.00 0.00 0.00 46 1011.9
20260509204139 87 316 1.0 4.0 0.00 0.00 0.00 45 1011.9
20260509204036 87 321 1.0 3.0 0.00 0.00 0.00 46 1011.9
20260509203941 87 314 1.0 4.0 0.00 0.00 0.00 47 1012.0
20260509203932 87 224 1.0 4.0 0.00 0.00 0.00 46 1012.0
20260509203833 87 315 1.0 4.0 0.00 0.00 0.00 47 1012.0
20260509203821 87 315 1.0 4.0 0.00 0.00 0.00 47 1012.0
20260509203633 87 315 1.0 4.0 0.00 0.00 0.00 48 1012.0
20260509203530 87 354 1.0 4.0 0.00 0.00 0.00 48 1012.0
20260509203428 87 340 1.0 4.0 0.00 0.00 0.00 46 1012.0
20260509203329 87 295 1.0 4.0 0.00 0.00 0.00 47 1012.0
20260509203206 87 295 1.0 4.0 0.00 0.00 0.00 48 1012.0
20260509203126 87 295 1.0 4.0 0.00 0.00 0.00 49 1012.0
20260509203024 87 228 1.0 4.0 0.00 0.00 0.00 48 1012.0
20260509202926 87 229 1.0 4.0 0.00 0.00 0.00 48 1012.0
20260509202921 86 221 1.0 4.0 0.00 0.00 0.00 48 1012.0
20260509202819 87 346 1.0 4.0 0.00 0.00 0.00 48 1012.0
20260509202808 87 228 1.0 4.0 0.00 0.00 0.00 48 1012.0
20260509202618 87 316 1.0 3.0 0.00 0.00 0.00 47 1012.0
20260509202518 87 296 1.0 3.0 0.00 0.00 0.00 48 1012.1
20260509202413 87 296 1.0 3.0 0.00 0.00 0.00 49 1012.1
20260509202313 87 222 1.0 3.0 0.00 0.00 0.00 49 1012.1
20260509202212 87 222 1.0 3.0 0.00 0.00 0.00 49 1012.1
20260509202156 87 225 1.0 3.0 0.00 0.00 0.00 49 1012.1
20260509202113 87 124 1.0 3.0 0.00 0.00 0.00 49 1012.1
20260509202012 86 240 1.0 3.0 0.00 0.00 0.00 50 1012.1
20260509201909 86 240 1.0 3.0 0.00 0.00 0.00 51 1012.2
20260509201809 86 241 1.0 3.0 0.00 0.00 0.00 51 1012.2
20260509201709 86 240 1.0 5.0 0.00 0.00 0.00 51 1012.1
20260509201645 86 277 1.0 5.0 0.00 0.00 0.00 51 1012.1
20260509201608 85 275 1.0 5.0 0.00 0.00 0.00 51 1012.1
20260509201507 85 194 1.0 5.0 0.00 0.00 0.00 51 1012.1
20260509201404 85 150 1.0 5.0 0.00 0.00 0.00 50 1012.1
20260509201304 85 144 1.0 5.0 0.00 0.00 0.00 50 1012.2
20260509201203 85 232 1.0 5.0 0.00 0.00 0.00 52 1012.2
20260509201141 85 329 1.0 5.0 0.00 0.00 0.00 52 1012.2
20260509201103 85 328 1.0 5.0 0.00 0.00 0.00 51 1012.2
20260509201001 85 44 1.0 5.0 0.00 0.00 0.00 51 1012.2
20260509200858 85 296 1.0 5.0 0.00 0.00 0.00 50 1012.2
20260509200759 85 296 1.0 5.0 0.00 0.00 0.00 52 1012.3
20260509200659 84 217 1.0 2.0 0.00 0.00 0.00 52 1012.3
20260509200636 84 217 1.0 2.0 0.00 0.00 0.00 52 1012.2
20260509200557 84 217 1.0 2.0 0.00 0.00 0.00 52 1012.2
20260509200454 84 193 1.0 2.0 0.00 0.00 0.00 53 1012.3
20260509200353 84 236 1.0 5.0 0.00 0.00 0.00 54 1012.3
20260509200349 84 236 1.0 2.0 0.00 0.00 0.00 54 1012.3
20260509200249 84 236 1.0 2.0 0.00 0.00 0.00 53 1012.3
20260509200240 84 236 1.0 5.0 0.00 0.00 0.00 54 1012.4
20260509200049 83 225 1.0 5.0 0.00 0.00 0.00 55 1012.3
20260509195948 83 225 2.0 5.0 0.00 0.00 0.00 55 1012.3
20260509195852 83 224 2.0 7.0 0.00 0.00 0.00 55 1012.3
20260509195747 83 278 2.0 7.0 0.00 0.00 0.00 54 1012.3
20260509195622 83 311 2.0 7.0 0.00 0.00 0.00 55 1012.4
20260509195545 83 311 2.0 7.0 0.00 0.00 0.00 56 1012.4
20260509195442 82 311 2.0 7.0 0.00 0.00 0.00 56 1012.4
20260509195337 82 310 2.0 7.0 0.00 0.00 0.00 55 1012.5
20260509195237 83 314 2.0 7.0 0.00 0.00 0.00 54 1012.5
20260509195136 83 300 2.0 7.0 0.00 0.00 0.00 53 1012.5
20260509195116 83 309 2.0 7.0 0.00 0.00 0.00 53 1012.5
20260509195036 83 319 2.0 7.0 0.00 0.00 0.00 55 1012.5
20260509194936 83 318 2.0 7.0 0.00 0.00 0.00 54 1012.5
20260509194839 83 307 2.0 6.0 0.00 0.00 0.00 55 1012.5
20260509194830 83 65 2.0 6.0 0.00 0.00 0.00 54 1012.6
20260509194737 83 297 2.0 6.0 0.00 0.00 0.00 54 1012.5
20260509194721 83 102 2.0 6.0 0.00 0.00 0.00 54 1012.6
20260509194533 83 34 2.0 6.0 0.00 0.00 0.00 55 1012.5
20260509194430 83 8 2.0 6.0 0.00 0.00 0.00 55 1012.5
20260509194326 82 233 2.0 6.0 0.00 0.00 0.00 56 1012.6
20260509194224 82 246 2.0 6.0 0.00 0.00 0.00 54 1012.6
20260509194125 83 136 2.0 6.0 0.00 0.00 0.00 54 1012.5
20260509194112 83 211 2.0 6.0 0.00 0.00 0.00 54 1012.5
20260509194025 83 236 1.0 6.0 0.00 0.00 0.00 54 1012.6
20260509193924 83 222 1.0 5.0 0.00 0.00 0.00 54 1012.6
20260509193818 83 236 1.0 6.0 0.00 0.00 0.00 54 1012.7
20260509193718 83 245 1.0 6.0 0.00 0.00 0.00 55 1012.6
20260509193619 83 311 1.0 6.0 0.00 0.00 0.00 55 1012.7
20260509193558 83 311 1.0 6.0 0.00 0.00 0.00 55 1012.7
20260509193519 83 311 1.0 6.0 0.00 0.00 0.00 56 1012.7
20260509193418 83 311 1.0 6.0 0.00 0.00 0.00 56 1012.7
20260509193319 82 259 2.0 6.0 0.00 0.00 0.00 56 1012.7
20260509193315 83 314 1.0 6.0 0.00 0.00 0.00 56 1012.7
20260509193213 83 314 2.0 6.0 0.00 0.00 0.00 56 1012.7
20260509193204 82 309 2.0 6.0 0.00 0.00 0.00 56 1012.7
20260509193013 82 231 2.0 6.0 0.00 0.00 0.00 56 1012.7
20260509192912 82 219 2.0 6.0 0.00 0.00 0.00 55 1012.7
20260509192808 82 217 2.0 6.0 0.00 0.00 0.00 56 1012.7
20260509192708 82 142 2.0 6.0 0.00 0.00 0.00 55 1012.7
20260509192609 82 143 2.0 6.0 0.00 0.00 0.00 56 1012.8
20260509192548 82 143 2.0 6.0 0.00 0.00 0.00 56 1012.8
20260509192509 82 210 2.0 6.0 0.00 0.00 0.00 57 1012.8
20260509192406 82 200 2.0 6.0 0.00 0.00 0.00 56 1012.8
20260509192305 82 214 2.0 6.0 0.00 0.00 0.00 55 1012.9
20260509192200 82 243 1.0 6.0 0.00 0.00 0.00 56 1012.9
20260509192101 82 197 1.0 6.0 0.00 0.00 0.00 56 1012.9
20260509192040 82 228 1.0 6.0 0.00 0.00 0.00 56 1012.9
20260509192000 82 248 1.0 5.0 0.00 0.00 0.00 57 1012.9
20260509191901 82 141 1.0 2.0 0.00 0.00 0.00 58 1012.9
20260509191756 82 300 1.0 4.0 0.00 0.00 0.00 57 1012.9
20260509191654 82 300 1.0 4.0 0.00 0.00 0.00 57 1012.9
20260509191535 82 232 1.0 4.0 0.00 0.00 0.00 57 1012.9
20260509191454 82 230 1.0 4.0 0.00 0.00 0.00 57 1012.9
20260509191355 82 232 1.0 4.0 0.00 0.00 0.00 57 1013.0
20260509191251 82 232 1.0 4.0 0.00 0.00 0.00 56 1013.0
20260509191151 82 232 1.0 4.0 0.00 0.00 0.00 57 1013.0
20260509191050 82 229 1.0 4.0 0.00 0.00 0.00 58 1013.0
20260509191030 82 230 1.0 4.0 0.00 0.00 0.00 57 1013.0
20260509190951 82 229 1.0 4.0 0.00 0.00 0.00 57 1013.0
20260509190851 82 282 1.0 6.0 0.00 0.00 0.00 58 1013.1
20260509190747 81 211 1.0 6.0 0.00 0.00 0.00 59 1013.1
20260509190742 82 211 1.0 6.0 0.00 0.00 0.00 58 1013.1
20260509190642 81 211 1.0 6.0 0.00 0.00 0.00 58 1013.0
20260509190633 81 211 1.0 6.0 0.00 0.00 0.00 59 1013.1
20260509190442 81 211 1.0 6.0 0.00 0.00 0.00 60 1013.1
20260509190342 81 212 2.0 6.0 0.00 0.00 0.00 59 1013.0
20260509190238 80 211 1.0 6.0 0.00 0.00 0.00 59 1013.1
20260509190139 80 238 1.0 6.0 0.00 0.00 0.00 59 1013.0
20260509190017 80 151 1.0 6.0 0.00 0.00 0.00 59 1013.1
20260509185938 80 253 1.0 6.0 0.00 0.00 0.00 58 1013.1
20260509185836 80 248 1.0 4.0 0.00 0.00 0.00 59 1013.1
20260509185737 80 150 1.0 4.0 0.00 0.00 0.00 59 1013.1
20260509185635 80 153 1.0 4.0 0.00 0.00 0.00 59 1013.1
20260509185535 80 317 1.0 4.0 0.00 0.00 0.00 58 1013.2
20260509185511 80 316 1.0 4.0 0.00 0.00 0.00 58 1013.2
20260509185433 80 316 1.0 4.0 0.00 0.00 0.00 59 1013.2
20260509185330 80 49 1.0 3.0 0.00 0.00 0.00 59 1013.2
20260509185233 80 37 1.0 4.0 0.00 0.00 0.00 59 1013.2
20260509185228 80 141 1.0 3.0 0.00 0.00 0.00 60 1013.3
20260509185129 80 41 1.0 4.0 0.00 0.00 0.00 60 1013.3
20260509185114 80 37 1.0 4.0 0.00 0.00 0.00 59 1013.2
20260509184926 80 37 1.0 4.0 0.00 0.00 0.00 59 1013.3
20260509184825 80 328 1.0 4.0 0.00 0.00 0.00 60 1013.3
20260509184723 80 243 1.0 4.0 0.00 0.00 0.00 60 1013.3
20260509184623 80 161 1.0 4.0 0.00 0.00 0.00 60 1013.3
20260509184522 80 207 1.0 7.0 0.00 0.00 0.00 60 1013.3
20260509184459 80 211 1.0 7.0 0.00 0.00 0.00 60 1013.3
20260509184421 80 307 1.0 7.0 0.00 0.00 0.00 60 1013.4
20260509184318 80 307 1.0 7.0 0.00 0.00 0.00 60 1013.3
20260509184216 80 316 1.0 7.0 0.00 0.00 0.00 60 1013.3
20260509184117 80 198 1.0 7.0 0.00 0.00 0.00 59 1013.3
20260509184015 80 198 1.0 7.0 0.00 0.00 0.00 60 1013.4
20260509183954 80 219 1.0 7.0 0.00 0.00 0.00 61 1013.4
20260509183915 80 238 1.0 7.0 0.00 0.00 0.00 61 1013.4
20260509183813 79 238 1.0 7.0 0.00 0.00 0.00 60 1013.4
20260509183712 79 238 1.0 7.0 0.00 0.00 0.00 60 1013.4
20260509183611 79 219 1.0 3.0 0.00 0.00 0.00 61 1013.4
20260509183511 79 235 1.0 4.0 0.00 0.00 0.00 60 1013.4
20260509183446 79 235 1.0 5.0 0.00 0.00 0.00 61 1013.4
20260509183409 79 235 1.0 6.0 0.00 0.00 0.00 61 1013.4
20260509183306 79 204 1.0 6.0 0.00 0.00 0.00 60 1013.4
20260509183203 79 195 1.0 6.0 0.00 0.00 0.00 61 1013.4
20260509183102 79 188 1.0 6.0 0.00 0.00 0.00 62 1013.4
20260509182943 78 228 1.0 6.0 0.00 0.00 0.00 62 1013.5
20260509182902 78 228 1.0 6.0 0.00 0.00 0.00 62 1013.5
20260509182800 78 228 1.0 6.0 0.00 0.00 0.00 62 1013.5
20260509182657 78 228 1.0 6.0 0.00 0.00 0.00 63 1013.4
20260509182554 78 228 1.0 6.0 0.00 0.00 0.00 62 1013.5
20260509182454 78 238 1.0 6.0 0.00 0.00 0.00 62 1013.5
20260509182435 78 236 1.0 4.0 0.00 0.00 0.00 62 1013.4
20260509182410 78 232 1.0 4.0 0.00 0.00 0.00 62 1013.5
20260509182355 78 235 1.0 4.0 0.00 0.00 0.00 62 1013.4
20260509182307 78 219 0.0 4.0 0.00 0.00 0.00 62 1013.5
20260509182258 78 232 1.0 4.0 0.00 0.00 0.00 62 1013.4
20260509182052 78 232 1.0 4.0 0.00 0.00 0.00 62 1013.4
20260509182039 78 232 1.0 4.0 0.00 0.00 0.00 63 1013.4
20260509181851 78 232 1.0 5.0 0.00 0.00 0.00 62 1013.5
20260509181748 78 298 1.0 6.0 0.00 0.00 0.00 62 1013.5
20260509181643 77 297 1.0 6.0 0.00 0.00 0.00 63 1013.5
20260509181542 77 296 2.0 6.0 0.00 0.00 0.00 63 1013.5
20260509181442 77 289 2.0 6.0 0.00 0.00 0.00 63 1013.6
20260509181424 77 289 2.0 6.0 0.00 0.00 0.00 64 1013.6
20260509181343 77 290 2.0 6.0 0.00 0.00 0.00 64 1013.6
20260509181242 77 288 2.0 7.0 0.00 0.00 0.00 63 1013.6
20260509181140 76 222 2.0 7.0 0.00 0.00 0.00 64 1013.6
20260509181040 76 238 2.0 7.0 0.00 0.00 0.00 65 1013.6
20260509180938 76 233 2.0 7.0 0.00 0.00 0.00 64 1013.6
20260509180915 76 239 2.0 7.0 0.00 0.00 0.00 64 1013.6
20260509180839 76 223 2.0 7.0 0.00 0.00 0.00 64 1013.6
20260509180737 76 233 2.0 7.0 0.00 0.00 0.00 64 1013.6
20260509180638 76 222 2.0 7.0 0.00 0.00 0.00 63 1013.7
20260509180631 76 118 2.0 7.0 0.00 0.00 0.00 64 1013.7
20260509180530 76 222 2.0 7.0 0.00 0.00 0.00 64 1013.7
20260509180521 76 222 2.0 7.0 0.00 0.00 0.00 64 1013.7
20260509180331 76 229 2.0 7.0 0.00 0.00 0.00 63 1013.7
20260509180230 76 245 2.0 6.0 0.00 0.00 0.00 65 1013.6
20260509180126 75 221 2.0 6.0 0.00 0.00 0.00 64 1013.7
20260509180025 76 175 1.0 6.0 0.00 0.00 0.00 64 1013.7
20260509175927 76 257 1.0 6.0 0.00 0.00 0.00 63 1013.7
20260509175917 76 238 1.0 6.0 0.00 0.00 0.00 63 1013.7
20260509175825 76 250 1.0 5.0 0.00 0.00 0.00 63 1013.7
20260509175724 76 233 1.0 5.0 0.00 0.00 0.00 64 1013.7
20260509175624 76 321 1.0 5.0 0.00 0.00 0.00 63 1013.7
20260509175522 76 318 1.0 6.0 0.00 0.00 0.00 65 1013.7
20260509175423 75 243 1.0 6.0 0.00 0.00 0.00 64 1013.7
20260509175358 75 243 1.0 6.0 0.00 0.00 0.00 64 1013.7
20260509175320 75 239 1.0 6.0 0.00 0.00 0.00 64 1013.7
20260509175218 75 239 1.0 6.0 0.00 0.00 0.00 65 1013.7
20260509175117 75 235 1.0 6.0 0.00 0.00 0.00 64 1013.7
20260509175016 75 235 1.0 6.0 0.00 0.00 0.00 64 1013.7
20260509174916 75 235 1.0 6.0 0.00 0.00 0.00 63 1013.8
20260509174854 75 233 1.0 6.0 0.00 0.00 0.00 63 1013.8
20260509174815 75 214 1.0 6.0 0.00 0.00 0.00 64 1013.7
20260509174712 75 262 1.0 6.0 0.00 0.00 0.00 63 1013.8
20260509174608 75 277 1.0 6.0 0.00 0.00 0.00 65 1013.8
20260509174508 75 146 1.0 6.0 0.00 0.00 0.00 65 1013.8
20260509174409 74 295 1.0 6.0 0.00 0.00 0.00 65 1013.8
20260509174346 74 295 1.0 6.0 0.00 0.00 0.00 65 1013.8
20260509174309 74 295 1.0 6.0 0.00 0.00 0.00 65 1013.8
20260509174206 74 295 1.0 6.0 0.00 0.00 0.00 64 1013.8
20260509174106 74 207 1.0 6.0 0.00 0.00 0.00 64 1013.8
20260509174004 74 207 1.0 6.0 0.00 0.00 0.00 66 1013.8
20260509173842 74 207 1.0 6.0 0.00 0.00 0.00 66 1013.8
20260509173802 74 207 1.0 6.0 0.00 0.00 0.00 66 1013.8
20260509173700 74 207 1.0 6.0 0.00 0.00 0.00 65 1013.8
20260509173600 74 225 1.0 6.0 0.00 0.00 0.00 64 1013.8
20260509173459 74 219 1.0 4.0 0.00 0.00 0.00 65 1013.8
20260509173359 74 221 1.0 4.0 0.00 0.00 0.00 66 1013.8
20260509173337 74 221 1.0 4.0 0.00 0.00 0.00 66 1013.7
20260509173256 74 221 1.0 4.0 0.00 0.00 0.00 66 1013.7
20260509173154 74 221 1.0 4.0 0.00 0.00 0.00 66 1013.8
20260509173050 73 221 1.0 4.0 0.00 0.00 0.00 66 1013.8
20260509172948 73 226 1.0 4.0 0.00 0.00 0.00 66 1013.7
20260509172828 73 226 1.0 4.0 0.00 0.00 0.00 66 1013.8
20260509172748 73 214 1.0 4.0 0.00 0.00 0.00 67 1013.8
20260509172648 73 217 1.0 4.0 0.00 0.00 0.00 67 1013.7
20260509172542 73 131 1.0 3.0 0.00 0.00 0.00 67 1013.8
20260509172443 72 143 1.0 3.0 0.00 0.00 0.00 67 1013.8
20260509172342 72 223 1.0 5.0 0.00 0.00 0.00 67 1013.8
20260509172322 72 222 1.0 6.0 0.00 0.00 0.00 67 1013.8
20260509172243 72 137 1.0 6.0 0.00 0.00 0.00 68 1013.7
20260509172142 72 136 2.0 6.0 0.00 0.00 0.00 68 1013.8
20260509172037 71 214 2.0 6.0 0.00 0.00 0.00 69 1013.8
20260509171936 71 217 2.0 6.0 0.00 0.00 0.00 69 1013.8
20260509171840 71 217 2.0 6.0 0.00 0.00 0.00 68 1013.8
20260509171823 71 188 2.0 6.0 0.00 0.00 0.00 68 1013.8
20260509171737 71 189 2.0 6.0 0.00 0.00 0.00 68 1013.8
20260509171637 71 221 2.0 6.0 0.00 0.00 0.00 67 1013.8
20260509171531 71 208 2.0 6.0 0.00 0.00 0.00 67 1013.8
20260509171431 71 217 1.0 6.0 0.00 0.00 0.00 66 1013.8
20260509171333 71 231 1.0 6.0 0.00 0.00 0.00 68 1013.8
20260509171323 71 236 1.0 5.0 0.00 0.00 0.00 68 1013.8
20260509171230 71 226 1.0 4.0 0.00 0.00 0.00 68 1013.8
20260509171131 71 94 1.0 4.0 0.00 0.00 0.00 68 1013.8
20260509171026 71 232 1.0 4.0 0.00 0.00 0.00 68 1013.8
20260509170927 71 161 1.0 4.0 0.00 0.00 0.00 69 1013.8
20260509170822 71 228 1.0 4.0 0.00 0.00 0.00 69 1013.8
20260509170726 70 223 2.0 6.0 0.00 0.00 0.00 69 1013.8
20260509170625 70 222 2.0 6.0 0.00 0.00 0.00 68 1013.8
20260509170523 70 226 2.0 6.0 0.00 0.00 0.00 70 1013.8
20260509170422 70 149 2.0 6.0 0.00 0.00 0.00 70 1013.8
20260509170324 70 210 2.0 6.0 0.00 0.00 0.00 70 1013.8
20260509170221 70 210 2.0 6.0 0.00 0.00 0.00 70 1013.9
20260509170118 69 246 2.0 6.0 0.00 0.00 0.00 70 1013.9
20260509170037 69 236 2.0 6.0 0.00 0.00 0.00 69 1013.9
20260509170013 69 148 2.0 6.0 0.00 0.00 0.00 70 1013.9
20260509165934 69 217 2.0 6.0 0.00 0.00 0.00 70 1013.9
20260509165813 69 236 2.0 6.0 0.00 0.00 0.00 69 1013.9
20260509165712 70 239 2.0 6.0 0.00 0.00 0.00 69 1013.9
20260509165613 69 233 2.0 4.0 0.00 0.00 0.00 69 1013.9
20260509165508 69 110 2.0 4.0 0.00 0.00 0.00 69 1013.8
20260509165407 69 132 1.0 4.0 0.00 0.00 0.00 70 1013.9
20260509165319 69 221 1.0 4.0 0.00 0.00 0.00 70 1013.9
20260509165307 69 221 1.0 4.0 0.00 0.00 0.00 69 1013.9
20260509165207 69 183 1.0 4.0 0.00 0.00 0.00 70 1013.9
20260509165106 69 210 1.0 4.0 0.00 0.00 0.00 69 1013.9
20260509165002 69 245 1.0 4.0 0.00 0.00 0.00 70 1013.9
20260509164902 69 217 1.0 3.0 0.00 0.00 0.00 70 1014.0
20260509164818 69 134 1.0 3.0 0.00 0.00 0.00 70 1014.0
20260509164803 69 156 1.0 3.0 0.00 0.00 0.00 70 1014.0
20260509164702 69 210 1.0 4.0 0.00 0.00 0.00 70 1014.0
20260509164600 69 238 1.0 7.0 0.00 0.00 0.00 71 1014.0
20260509164501 69 238 1.0 8.0 0.00 0.00 0.00 71 1014.0
20260509164358 69 238 1.0 8.0 0.00 0.00 0.00 71 1013.9
20260509164318 69 236 1.0 8.0 0.00 0.00 0.00 72 1014.0
20260509164258 69 236 1.0 8.0 0.00 0.00 0.00 72 1014.0
20260509164157 68 237 1.0 8.0 0.00 0.00 0.00 72 1013.9
20260509164055 68 236 1.0 8.0 0.00 0.00 0.00 72 1013.9